GFSFLT1_925_temp_000.txt.gz
Temp
16 16 16 16 15 15 15 15 15 15 15 15 15 16 17 17 18 18 17 16 16 16 15 15 15 15 15 15 15 14 14 14 14
16 16 16 15 15 15 14 14 14 14 14 15 14 16 16 17 18 18 17 16 16 16 15 15 15 15 15 14 14 14 14 14 14
16 16 16 15 15 15 14 14 14 14 14 14 14 16 16 17 18 17 17 16 16 15 15 15 15 14 14 14 14 14 14 13 13
16 16 16 15 15 15 15 14 14 14 14 14 14 15 16 17 17 17 17 16 16 15 15 15 14 14 14 14 14 14 14 13 13
16 16 16 15 15 15 15 15 14 14 14 14 15 16 16 17 17 17 17 17 15 15 15 15 15 14 14 14 14 14 14 14 13
16 16 15 15 15 15 15 15 14 14 15 15 16 16 17 17 17 17 17 17 15 15 15 16 15 15 15 15 14 14 14 14 14
16 16 16 15 15 15 15 15 15 15 16 16 16 17 17 17 18 17 17 17 15 15 15 15 16 15 15 14 14 14 14 14 14
17 16 16 15 15 15 15 15 16 16 16 16 17 17 17 17 18 17 17 17 16 15 15 15 15 14 14 14 14 14 14 14 14
17 16 16 16 16 15 15 16 16 16 16 17 17 17 17 18 18 18 17 17 17 15 15 15 15 15 15 15 15 14 14 14 14
17 17 17 17 16 16 16 16 16 17 16 17 17 17 18 18 18 18 18 17 17 17 15 15 15 15 15 15 15 15 15 15 14
18 18 17 17 17 16 17 17 17 17 17 17 17 17 17 17 17 17 17 17 17 17 17 15 16 16 16 16 16 15 15 15 15
18 18 17 17 17 17 17 17 17 17 17 17 17 18 18 17 17 17 17 17 17 17 17 16 16 16 16 16 16 16 15 15 15
17 17 17 17 17 17 17 17 17 17 17 17 17 17 17 17 17 17 17 17 17 17 17 17 16 15 16 16 16 16 16 15 15
17 17 17 17 17 17 17 17 17 17 17 17 17 17 17 17 17 17 17 17 17 17 17 17 16 16 16 15 16 16 16 15 15
18 17 17 17 17 17 17 17 17 17 17 17 17 17 17 17 17 17 17 17 17 17 17 16 16 16 16 16 15 15 15 15 15
18 17 17 17 17 17 17 17 17 17 17 17 17 17 17 17 17 17 17 17 17 17 16 16 16 16 15 16 16 15 15 15 15
18 18 17 17 17 17 17 17 16 16 16 16 15 14 15 16 17 16 16 16 16 16 16 16 16 16 15 16 16 16 15 15 15
18 18 18 17 17 17 17 17 17 16 17 17 16 13 14 12 17 17 16 16 17 17 16 16 16 16 16 15 15 16 16 16 15
18 18 18 18 17 17 17 17 17 17 17 16 17 16 16 13 14 17 18 17 17 17 16 16 16 16 16 16 16 16 16 16 15
19 18 18 17 17 17 17 17 17 17 17 16 16 16 15 15 14 15 15 16 17 16 16 16 16 16 16 16 16 16 16 15 15

GFSFLT1_925_temp_003.txt.gz
Temp
16 16 16 15 15 15 15 15 15 15 15 15 15 17 17 17 17 17 16 17 16 16 15 15 15 15 15 15 14 14 14 14 14
16 16 16 15 15 15 15 14 14 14 14 15 15 16 17 17 17 17 17 16 16 16 15 15 15 15 15 15 14 14 14 14 14
16 16 16 16 15 15 14 14 14 14 14 14 14 16 16 17 16 16 17 16 16 15 15 15 15 14 14 14 14 14 14 13 13
16 16 16 15 15 15 15 14 14 14 14 14 14 16 16 17 17 16 17 16 16 15 15 15 14 14 14 14 14 14 14 13 13
16 16 16 15 15 15 15 15 14 14 14 14 14 16 17 17 17 16 16 17 16 15 15 15 14 14 14 14 14 14 14 14 13
16 16 15 15 15 15 15 15 14 14 14 14 15 16 17 16 16 16 16 17 16 15 15 15 14 14 14 14 14 14 14 14 14
16 16 16 15 15 15 15 15 14 15 15 15 16 16 17 17 17 17 16 17 16 16 15 15 15 14 14 14 14 14 14 14 14
16 16 15 15 15 15 15 15 15 15 16 16 16 16 17 17 17 17 17 17 16 16 16 15 15 15 15 14 14 14 14 14 14
16 16 16 16 15 15 15 15 15 16 16 16 16 16 17 17 17 17 17 17 16 16 16 16 15 15 15 15 15 15 15 15 14
17 17 16 16 16 16 15 15 15 16 16 16 16 16 17 17 17 17 18 17 17 16 16 16 16 16 15 15 15 15 15 15 15
17 17 17 16 16 16 16 16 16 16 16 16 16 17 17 17 17 17 18 18 18 17 16 16 16 16 16 16 16 15 15 15 15
18 17 17 17 17 17 16 16 16 16 16 16 17 17 17 17 17 17 17 17 17 17 17 16 16 16 16 16 16 16 16 15 15
18 17 17 17 17 17 17 16 16 16 16 17 17 17 17 17 17 17 17 17 17 17 17 17 17 16 16 16 17 16 16 16 15
18 17 17 17 17 17 17 16 16 16 16 16 17 17 17 17 17 17 17 17 17 17 17 17 17 17 16 16 16 17 16 16 16
18 17 17 17 17 17 17 16 16 16 16 16 16 16 17 17 17 17 17 17 17 17 17 17 17 17 17 16 16 16 16 16 16
18 18 17 16 16 17 16 16 16 16 16 16 15 16 16 17 17 17 17 17 17 17 17 17 17 17 17 16 16 15 16 15 15
18 18 17 17 16 16 16 16 15 15 15 15 14 14 15 16 16 16 16 16 16 16 17 17 17 16 16 16 16 16 15 15 15
18 18 17 17 16 16 15 15 15 15 15 15 16 13 13 11 16 16 15 15 15 15 15 16 16 16 16 16 16 16 16 15 15
19 19 18 17 17 16 16 16 16 15 16 15 14 16 16 12 12 16 16 16 16 16 16 16 16 16 16 16 16 16 16 16 15
19 19 18 18 17 17 17 16 16 15 15 16 16 14 15 15 14 15 16 16 16 17 17 17 16 17 17 17 17 16 16 16 15

GFSFLT1_925_temp_006.txt.gz
Temp
16 16 16 15 15 15 15 15 15 15 16 16 15 16 16 16 16 16 16 16 16 16 15 15 15 15 15 15 14 14 14 14 14
16 16 16 15 15 15 14 14 15 15 14 15 15 16 16 16 16 16 16 16 16 16 15 15 15 15 15 15 14 14 14 14 14
17 16 15 15 15 14 14 14 14 14 14 14 15 16 16 16 16 16 16 16 16 16 15 15 15 15 14 14 14 14 14 14 13
16 16 16 15 15 15 15 14 14 14 14 14 14 15 16 16 16 16 16 16 16 16 15 15 15 14 14 14 14 14 14 14 13
16 16 16 16 15 15 15 15 14 14 14 14 14 15 16 16 16 16 16 16 16 16 15 15 15 14 14 14 14 14 14 14 14
16 16 16 16 15 15 15 15 15 15 14 14 14 14 16 16 16 16 16 16 16 16 15 15 15 15 14 14 14 14 14 14 14
16 16 15 16 16 16 15 15 15 15 15 14 14 14 15 16 17 16 16 16 16 16 16 15 15 15 15 15 14 14 14 14 14
16 16 16 15 15 15 15 15 15 15 15 15 15 15 16 16 17 16 16 16 16 16 16 15 15 15 15 15 15 15 14 14 14
16 16 16 15 15 15 15 15 15 15 15 15 15 16 16 16 17 17 17 17 16 16 16 16 15 15 15 15 15 15 15 15 15
17 17 16 16 16 16 16 15 15 15 15 15 16 16 16 16 16 17 17 17 16 16 16 16 16 16 15 15 15 15 15 15 15
17 17 17 17 17 17 16 16 16 16 15 15 16 16 16 16 16 17 17 17 17 17 16 17 17 16 16 16 16 15 15 15 15
17 17 17 17 17 17 16 16 15 15 15 15 16 16 16 16 16 16 17 17 17 17 16 16 16 16 17 17 17 16 16 15 15
18 17 17 17 17 17 16 16 16 16 16 16 16 16 16 16 16 16 17 17 17 17 17 17 16 16 16 17 17 17 16 16 16
18 18 18 17 17 17 16 16 16 15 15 16 15 16 16 16 16 16 16 16 17 17 17 17 17 17 16 16 17 17 17 16 16
18 18 18 17 17 17 16 16 15 15 15 14 14 15 15 16 16 16 16 16 16 16 17 17 17 17 17 16 16 16 16 16 16
18 18 18 18 17 17 16 16 15 15 14 14 14 14 15 15 15 14 15 15 15 15 16 16 16 16 16 17 17 16 16 16 16
18 18 18 17 17 16 15 15 14 14 14 14 14 14 16 16 16 15 15 15 14 14 15 15 15 15 15 16 16 16 16 15 15
18 18 18 17 16 16 15 15 14 14 15 14 14 13 14 11 16 17 16 16 15 15 15 15 15 15 15 15 15 16 16 15 15
18 17 17 17 16 16 16 16 15 14 14 15 14 14 15 14 16 17 16 17 16 16 16 15 15 15 16 16 17 17 16 16 15
17 17 17 16 16 15 15 15 15 15 14 14 15 14 13 14 14 14 16 17 16 16 16 16 15 14 14 14 15 16 16 16 15

GFSFLT1_925_temp_009.txt.gz
Temp
17 16 16 15 15 15 15 15 15 15 16 16 16 15 15 16 16 16 16 16 16 16 15 15 15 15 15 14 14 14 14 14 14
17 16 15 15 15 15 15 15 15 15 15 15 15 15 15 16 16 16 16 16 16 16 15 15 15 15 15 14 14 14 14 14 14
16 16 15 15 15 15 14 14 14 14 14 14 14 15 15 15 16 16 16 16 16 16 16 15 15 15 15 15 14 14 14 14 14
16 16 15 15 15 15 15 14 14 14 14 14 14 14 15 15 16 16 16 16 16 16 16 15 15 15 15 15 14 14 14 14 14
16 16 16 15 15 15 15 14 14 15 14 14 14 14 15 15 15 16 16 16 15 16 16 15 15 15 15 15 14 14 14 14 14
16 16 16 16 16 15 15 14 14 14 15 14 14 14 14 15 15 16 16 16 15 16 16 15 15 15 15 15 14 14 14 14 14
16 16 16 16 15 15 15 14 14 14 14 15 14 14 14 14 15 16 16 16 15 16 16 16 15 15 15 15 15 15 14 14 14
16 16 16 16 16 15 15 15 15 14 14 15 15 15 14 14 15 16 16 16 15 16 16 16 16 15 15 15 15 15 15 15 15
16 16 16 16 16 15 15 15 15 14 14 14 14 15 15 15 15 16 16 16 15 15 16 16 16 16 15 15 15 15 15 15 15
16 16 16 16 15 16 15 15 15 15 15 15 15 15 15 15 15 16 16 16 16 15 16 16 17 16 16 16 15 15 15 15 15
17 16 16 16 16 16 16 15 15 15 15 15 15 15 15 15 16 16 16 16 16 16 15 16 16 17 17 17 16 15 15 15 15
17 17 17 17 17 16 16 16 16 15 15 15 15 15 15 15 15 15 16 16 16 16 16 16 16 16 17 17 17 16 16 15 15
18 18 18 18 17 17 16 16 16 16 16 15 15 16 16 16 16 16 16 16 16 16 17 17 16 16 16 17 17 17 17 16 16
18 18 18 18 17 17 16 16 16 15 14 14 15 15 15 15 16 16 16 16 16 16 16 16 16 16 16 16 17 17 17 17 17
18 18 18 18 17 17 16 16 15 15 14 14 14 14 14 14 14 15 15 14 15 16 16 16 16 16 16 16 16 16 16 16 16
18 18 18 17 17 17 16 15 14 14 14 12 13 14 14 14 14 14 14 14 14 14 14 14 15 15 15 15 16 16 15 16 16
17 17 17 16 15 15 15 14 13 13 14 13 13 13 16 16 16 15 15 16 16 14 15 14 14 14 14 14 15 15 15 15 15
16 16 15 15 14 14 14 14 13 13 14 14 13 13 14 13 17 17 16 16 16 17 17 17 16 16 16 15 15 15 16 15 15
16 16 15 15 15 14 14 14 13 13 13 14 14 14 14 14 15 17 16 16 15 16 16 16 17 17 16 16 16 16 16 16 14
15 15 15 15 14 14 14 14 13 14 14 14 14 14 13 13 13 14 15 16 16 16 15 15 15 15 16 16 16 16 16 16 15

GFSFLT1_925_temp_012.txt.gz
Temp
17 16 16 15 15 15 15 15 15 15 15 16 16 15 15 15 15 16 16 15 16 16 16 15 15 15 15 15 14 15 14 14 15
17 16 16 15 15 15 15 15 15 15 15 15 15 15 15 15 15 16 15 15 16 16 16 15 15 15 15 15 14 14 14 14 14
17 16 16 15 15 15 15 15 15 15 15 15 15 15 15 14 15 15 15 16 16 16 16 15 15 15 15 15 15 14 14 14 14
16 16 16 15 15 15 15 15 15 14 15 15 15 14 14 14 15 15 15 15 15 16 16 16 15 15 15 15 15 14 14 14 14
16 16 16 15 15 16 16 15 15 15 14 14 14 14 14 14 14 15 15 16 15 15 16 16 16 15 15 15 15 15 14 14 14
16 16 16 16 15 15 15 15 15 15 14 14 15 14 14 14 14 15 15 15 15 15 16 16 16 16 15 15 15 15 15 15 14
16 16 16 15 15 15 15 15 15 15 14 14 14 14 14 14 14 14 15 15 14 15 15 16 16 16 15 15 15 15 15 15 15
16 16 16 15 15 15 15 15 15 14 14 14 14 14 14 14 14 14 15 15 14 15 15 16 16 16 16 15 15 15 15 15 15
16 16 16 16 16 16 15 15 15 15 15 15 15 15 14 15 15 15 15 15 15 14 15 16 16 16 16 16 16 15 15 15 15
17 17 16 16 16 16 16 16 16 16 16 15 15 15 15 15 15 15 16 16 16 15 14 15 16 16 17 16 16 16 15 15 15
18 17 17 17 17 17 16 16 16 16 16 16 16 16 16 16 16 16 16 16 16 16 15 15 15 16 16 17 17 16 16 15 15
18 17 17 17 17 17 17 16 16 16 15 16 16 16 16 16 16 16 16 16 16 16 16 15 15 16 16 17 17 17 16 15 15
18 18 18 18 17 17 16 16 16 15 15 15 15 15 15 16 16 16 16 16 16 16 16 16 16 15 16 16 17 17 17 17 16
18 17 18 17 17 16 16 15 14 14 14 13 14 14 14 15 15 15 15 16 16 16 16 17 16 16 16 16 16 16 16 17 17
17 17 17 16 16 15 15 15 14 13 14 13 13 14 14 14 14 14 15 15 15 15 15 15 15 16 16 15 15 16 16 16 16
16 15 15 15 15 15 14 14 13 13 13 12 13 13 15 15 15 16 15 15 16 15 15 15 15 15 15 15 15 14 15 15 15
15 15 15 15 14 14 14 13 13 13 13 12 13 13 15 16 17 17 16 16 15 14 15 14 15 16 16 16 17 16 16 15 15
15 15 15 14 14 14 13 13 12 13 13 13 12 13 15 15 16 17 16 16 16 16 16 15 15 15 15 16 16 16 17 17 15
14 14 13 13 13 13 12 12 12 12 13 13 14 13 13 14 14 16 16 16 16 15 15 16 16 15 15 15 16 17 17 17 16
13 13 13 12 12 12 11 11 11 11 11 11 11 12 12 13 13 13 14 14 15 15 15 15 14 15 15 14 15 16 16 16 16

GFSFLT1_925_temp_015.txt.gz
Temp
18 17 17 16 15 15 15 15 15 15 15 15 16 16 15 15 15 16 16 15 16 15 16 16 16 15 15 15 15 15 15 15 15
18 17 16 15 15 15 15 15 15 15 15 15 15 15 15 15 14 15 15 15 15 15 16 16 15 15 15 15 15 15 15 15 15
17 17 16 15 15 15 15 15 15 15 15 15 15 15 15 15 14 15 15 15 15 15 16 16 16 15 15 15 15 15 15 15 15
17 16 16 15 15 16 16 16 16 15 15 15 15 15 15 14 14 14 14 15 15 15 16 17 16 16 16 15 15 15 15 15 15
17 16 16 15 15 15 16 16 16 16 16 15 14 14 14 15 14 14 14 15 15 15 15 16 17 16 16 16 15 15 15 15 15
16 16 16 16 15 15 15 15 15 16 15 15 14 14 14 14 14 14 14 15 14 15 15 16 16 17 16 16 15 15 15 15 15
16 16 16 16 16 15 15 15 15 15 15 14 14 14 14 14 14 14 15 15 14 14 15 15 16 16 16 16 16 16 15 15 15
16 16 16 16 16 16 16 16 16 15 15 14 14 15 15 15 15 15 16 15 14 14 15 15 15 16 16 16 16 16 16 15 15
16 16 16 16 16 16 16 16 16 16 16 15 15 15 15 15 15 16 16 16 16 14 14 15 15 15 16 16 16 16 16 15 15
17 17 17 17 17 17 16 16 16 16 15 15 15 15 15 15 15 15 16 16 16 16 15 15 15 16 16 16 16 16 16 16 15
17 17 17 17 17 17 16 16 15 14 14 14 14 15 15 16 15 15 16 16 16 16 15 15 15 16 16 16 16 16 16 16 16
17 17 17 17 17 16 16 16 15 15 14 14 14 14 14 14 15 15 15 16 16 17 16 15 15 15 16 16 16 16 16 17 16
17 17 17 17 16 16 16 15 14 14 14 14 15 14 14 15 16 16 16 17 17 17 17 17 17 15 15 16 16 16 16 16 16
16 16 16 16 15 15 14 14 13 13 13 13 13 13 13 14 14 14 14 15 16 16 16 17 17 16 15 15 16 16 16 16 16
15 15 15 14 14 13 13 12 13 13 13 13 13 13 14 14 14 14 14 14 14 14 14 15 14 15 15 15 14 15 16 16 16
15 14 14 14 13 13 12 12 13 13 13 12 12 14 14 15 15 15 14 14 16 14 14 14 14 14 15 16 16 14 14 15 15
14 14 14 14 13 12 12 12 12 12 13 13 13 14 16 17 15 15 15 15 15 14 14 14 14 14 14 14 16 16 16 14 15
13 13 13 13 12 11 11 10 11 11 12 12 13 13 14 13 14 15 15 15 14 14 14 14 14 14 13 13 15 16 16 16 15
12 12 11 11 10 9 9 10 9 9 10 11 12 11 11 12 13 15 14 14 15 14 14 14 14 13 13 14 14 14 15 15 13
11 10 10 10 9 8 8 8 8 8 8 9 9 9 10 11 12 11 13 12 13 13 13 14 14 14 13 13 13 13 14 13 13

GFSFLT1_925_temp_018.txt.gz
Temp
17 17 17 16 16 15 15 15 15 15 15 15 16 16 15 15 17 17 17 16 17 16 16 17 16 16 16 16 16 15 15 15 15
17 17 17 16 15 15 15 15 15 15 15 15 15 15 15 16 16 17 17 17 16 15 16 17 16 16 16 16 16 15 15 15 15
17 17 16 16 15 16 16 16 16 15 15 15 15 16 15 15 15 17 16 16 15 15 16 16 17 16 16 16 16 15 15 15 15
17 16 16 16 16 16 16 16 16 16 16 16 15 15 15 15 16 17 17 16 15 15 16 16 16 17 16 16 16 16 15 15 15
17 17 17 16 16 16 16 16 16 16 16 16 16 15 15 15 17 17 17 15 14 15 15 16 16 17 17 16 16 16 16 15 15
17 17 17 16 16 16 16 16 16 16 16 16 16 15 16 17 17 17 17 15 14 15 15 15 16 16 17 17 16 16 16 15 15
17 16 16 16 16 16 16 16 16 16 17 18 17 16 17 17 17 17 16 15 14 15 15 15 15 16 16 16 16 16 16 16 16
17 17 17 17 17 16 17 17 17 17 17 18 18 18 17 17 17 17 16 15 14 15 15 15 15 15 16 16 16 16 16 16 16
18 18 17 17 17 17 17 17 17 17 17 17 17 17 17 17 17 17 16 15 16 15 15 15 15 15 16 16 16 16 16 16 16
18 18 18 18 17 17 17 17 17 17 18 18 17 17 17 17 17 17 17 16 16 17 15 15 15 16 16 16 16 16 16 16 16
18 17 18 17 17 17 17 17 17 17 18 18 18 17 18 17 17 17 17 16 15 17 17 15 15 15 16 16 16 16 16 16 16
17 17 17 18 17 17 17 17 17 17 17 17 18 18 18 18 18 17 17 17 17 16 16 15 15 15 16 16 16 16 16 16 16
17 17 17 17 17 17 17 17 17 17 17 17 17 17 17 17 17 17 17 17 17 17 16 16 15 15 15 16 16 16 16 16 16
16 16 16 16 16 16 16 16 16 16 16 15 15 16 16 16 17 17 17 17 17 16 16 15 15 15 14 14 15 16 16 16 16
16 16 16 16 16 16 16 16 16 16 16 16 16 16 16 16 17 17 18 18 17 17 17 16 16 16 15 15 14 14 15 15 15
15 15 15 15 15 15 15 15 15 16 16 16 16 16 16 18 18 18 17 18 18 18 17 17 17 17 16 15 15 14 14 14 15
13 13 13 13 14 14 13 13 13 14 14 15 14 17 17 18 16 15 16 17 17 17 17 17 17 17 16 16 15 14 14 14 14
12 12 12 12 12 12 12 12 12 12 12 13 13 14 15 15 14 15 15 16 16 16 16 16 16 16 16 16 16 15 14 14 14
11 11 11 11 11 11 11 11 11 11 12 11 12 12 12 12 13 14 14 14 14 14 14 14 14 15 15 16 15 14 14 14 13
9 9 9 9 10 9 9 9 10 10 10 10 10 10 11 11 12 12 13 12 12 13 13 13 14 14 14 14 14 13 12 11 12

GFSFLT1_925_temp_021.txt.gz
Temp
17 17 17 17 16 15 15 15 15 16 15 15 16 16 16 16 17 18 18 18 17 17 16 16 17 17 16 16 16 16 16 16 16
17 17 17 17 16 15 15 15 15 15 15 15 15 16 15 16 17 17 18 18 17 17 16 17 17 17 16 16 16 16 16 16 16
17 17 17 16 16 16 16 16 16 16 16 16 16 16 16 16 16 17 17 18 17 16 16 16 16 17 17 16 16 16 16 16 15
17 17 17 16 16 17 16 16 16 16 16 16 16 16 16 15 16 17 18 18 17 16 15 16 17 17 17 17 16 16 16 16 16
18 17 17 17 17 16 16 16 16 16 16 16 16 16 16 15 16 17 18 18 17 16 15 15 16 17 17 17 17 16 16 16 16
19 18 18 17 17 17 16 16 16 16 17 17 17 17 16 17 18 19 19 18 17 16 15 15 16 16 17 17 17 17 16 16 16
19 18 17 17 17 17 17 17 17 16 16 18 19 17 18 19 19 19 18 18 17 16 15 15 15 16 16 16 16 17 16 16 16
20 19 19 18 18 17 18 18 18 18 19 19 19 19 19 19 19 19 19 18 17 16 16 15 16 16 16 16 16 16 16 16 16
20 20 20 19 19 19 19 19 19 19 19 19 19 19 19 19 19 19 19 18 17 16 16 15 16 16 16 16 16 16 16 16 16
20 20 20 19 19 19 19 19 19 19 19 20 20 19 19 19 19 19 18 18 18 17 16 15 15 16 16 16 16 16 16 16 16
19 19 19 19 19 19 19 19 19 19 19 19 19 19 19 19 19 19 19 19 18 18 17 16 15 16 16 16 16 16 16 16 16
19 19 19 19 19 19 19 18 18 18 18 18 18 18 19 19 19 18 18 19 19 18 18 17 16 15 15 16 16 16 16 16 16
18 18 19 18 18 18 17 17 18 18 18 18 17 17 17 18 18 18 18 19 18 18 18 17 17 16 15 15 16 16 16 16 16
18 17 17 17 17 18 17 17 17 17 18 18 18 17 18 17 18 18 18 18 19 18 18 17 17 17 17 16 15 15 15 15 15
17 17 17 17 17 17 16 16 16 16 17 17 17 17 17 17 17 17 19 18 18 18 18 18 18 17 17 17 16 15 15 15 15
15 15 15 15 15 15 15 15 14 15 15 15 15 15 15 17 17 15 15 16 17 17 18 17 18 18 17 17 17 16 15 15 15
14 14 14 14 14 14 13 13 13 13 13 14 14 15 15 16 14 14 15 15 15 16 15 16 16 15 15 15 16 16 16 16 15
12 12 12 12 12 12 12 12 12 12 12 13 13 13 13 13 13 13 14 14 14 14 14 14 14 14 14 14 14 15 15 14 15
11 11 11 11 11 11 10 11 11 11 11 11 11 11 11 11 11 13 12 13 13 13 13 13 13 13 14 14 14 14 12 11 11
10 10 10 10 10 9 9 9 9 10 10 9 10 10 11 11 11 10 11 11 11 11 11 12 11 12 12 13 12 12 12 11 11

GFSFLT1_925_temp_024.txt.gz
Temp
18 17 17 17 16 16 15 15 16 16 17 16 16 16 16 16 16 16 17 18 18 17 17 16 16 17 17 17 16 16 16 16 16
17 17 17 17 16 16 15 16 16 16 16 16 16 16 16 16 16 16 17 17 18 18 17 17 17 17 17 17 16 17 16 16 16
17 17 17 17 16 16 16 16 16 16 15 15 15 15 16 16 16 16 16 17 17 17 17 16 16 17 17 17 16 16 16 16 16
17 17 17 17 17 16 16 16 16 16 16 16 16 16 16 16 16 16 16 17 18 17 17 16 16 16 17 17 17 16 16 16 16
18 18 17 17 17 17 17 17 16 16 16 16 17 17 17 16 16 17 17 18 17 18 17 16 16 16 17 17 17 16 16 16 16
19 18 18 18 17 17 17 17 17 17 17 17 18 18 17 17 17 17 18 18 18 18 17 16 16 16 16 16 16 17 16 17 16
19 18 18 18 18 18 18 18 18 17 18 18 18 19 19 18 18 19 19 18 18 18 17 17 16 16 16 16 16 16 16 17 16
20 19 19 19 18 18 18 18 18 18 18 18 19 19 19 19 19 19 19 19 18 18 17 17 16 16 16 16 16 16 16 16 16
20 20 20 19 19 19 19 19 19 19 19 19 19 19 19 19 19 19 19 19 19 18 17 17 16 16 16 16 16 16 16 16 16
20 20 19 19 19 19 19 19 19 19 19 19 19 19 19 19 19 19 19 19 19 18 18 17 17 17 16 16 16 16 16 16 16
19 19 19 19 19 19 19 19 18 18 18 18 18 18 18 18 18 19 19 18 18 18 19 18 17 17 17 16 16 16 16 16 16
18 18 18 18 18 18 18 18 18 18 18 18 17 17 17 18 18 18 18 18 18 18 18 18 18 17 17 17 17 16 16 16 15
18 18 17 17 17 17 17 17 17 17 17 17 17 17 17 17 17 17 17 18 18 18 18 18 18 17 17 17 17 17 16 16 16
17 17 17 17 17 16 16 16 15 15 15 15 15 16 16 16 16 16 16 16 16 16 17 17 17 17 17 17 16 16 16 15 15
16 16 15 15 15 15 14 14 14 13 13 13 14 14 14 15 15 14 15 15 16 15 16 16 16 16 15 15 16 16 16 15 15
15 14 14 13 13 13 13 12 12 12 12 12 12 13 14 15 13 13 14 14 14 14 14 14 14 14 14 14 14 14 14 15 15
13 13 12 12 12 12 11 11 11 11 11 11 11 8 11 12 12 12 13 12 13 14 13 13 13 13 13 13 13 13 14 14 14
12 12 11 11 11 10 10 10 10 10 10 10 10 7 8 9 11 11 12 12 12 12 12 12 12 12 12 12 12 12 12 12 13
11 10 10 10 10 9 9 9 9 9 9 9 9 9 9 7 8 10 9 10 10 9 10 10 10 10 10 11 11 11 11 11 11
10 10 9 9 9 8 8 8 8 8 7 8 8 7 8 8 7 6 7 7 8 8 8 9 9 8 9 9 9 9 9 8 9

GFSFLT1_925_temp_027.txt.gz
Temp
18 17 17 17 17 16 16 16 16 17 17 17 16 16 16 16 16 16 17 17 17 18 17 16 16 16 17 17 16 16 16 16 16
17 18 17 17 16 16 16 15 16 16 16 15 15 15 16 16 16 16 16 17 17 17 18 17 17 16 16 17 17 17 17 16 16
17 17 17 17 16 16 15 16 15 15 16 15 15 15 16 16 16 16 16 17 17 17 17 17 17 17 17 17 17 17 16 16 16
17 17 17 17 16 16 16 15 15 15 15 16 16 16 16 16 16 16 16 17 17 17 18 17 16 16 16 17 17 17 17 16 16
18 18 18 17 17 17 17 17 16 16 17 17 17 17 17 17 17 17 18 18 18 17 18 17 17 16 16 16 17 17 17 16 16
18 18 17 17 18 18 18 18 18 17 18 18 18 18 18 18 18 18 18 18 18 17 18 18 17 17 16 16 16 16 16 17 17
18 18 18 18 18 18 18 18 18 18 18 18 18 18 18 18 18 18 19 19 18 18 18 18 17 17 16 16 16 16 16 16 16
19 19 19 19 19 19 18 18 18 18 18 18 19 19 19 19 19 19 19 19 18 18 18 18 17 17 16 16 16 16 16 16 16
20 19 19 19 19 19 19 18 18 18 19 19 18 18 18 18 18 19 19 19 19 18 18 18 17 17 17 17 16 16 16 16 16
19 19 19 19 19 19 19 18 18 18 18 18 18 18 18 18 17 17 18 18 18 18 18 18 18 18 17 17 17 17 16 16 16
19 19 19 18 18 18 18 17 17 17 17 17 17 17 17 17 17 17 17 17 17 17 17 17 18 18 18 17 17 17 16 16 16
18 18 18 17 17 17 17 17 17 17 17 17 17 16 16 16 16 16 16 16 16 16 16 17 16 17 16 16 16 17 17 16 16
17 17 17 16 16 17 17 16 16 15 15 14 15 15 15 16 15 14 15 15 15 15 15 15 16 16 15 15 16 16 16 15 15
17 16 16 16 16 15 15 14 14 13 13 13 13 14 15 14 13 14 14 15 14 14 14 14 14 14 14 14 14 14 15 15 14
16 15 15 15 14 14 13 13 13 12 11 12 12 13 14 13 13 13 14 14 13 12 13 13 13 13 13 12 12 13 13 13 14
15 14 14 13 13 12 12 11 11 11 10 11 10 12 13 12 13 13 12 13 11 12 12 12 12 11 11 12 11 11 12 12 13
14 13 12 12 12 11 10 10 9 10 9 8 8 6 9 11 10 10 11 10 10 11 11 10 10 10 9 10 9 10 10 11 11
12 12 11 11 10 10 9 9 8 8 8 8 8 5 5 7 9 9 10 9 9 9 8 8 8 8 8 8 8 8 8 9 10
11 10 10 9 9 9 8 8 8 7 7 7 8 7 6 4 5 8 7 7 7 7 7 7 7 7 7 7 7 7 8 8 8
10 9 9 8 8 8 8 7 7 7 7 6 6 6 6 6 4 4 5 6 6 6 6 6 6 6 6 6 6 6 6 6 7

GFSFLT1_925_temp_030.txt.gz
Temp
18 17 17 17 16 16 15 15 15 16 16 16 15 15 15 16 16 16 16 16 16 16 17 16 16 16 17 17 16 16 16 16 16
17 18 18 17 16 16 16 15 15 15 16 15 15 15 16 16 16 16 16 16 16 16 17 17 17 17 17 17 17 17 17 17 16
17 17 17 17 17 16 15 15 15 15 16 16 16 16 16 16 16 16 16 16 17 16 17 17 17 17 17 17 17 17 17 17 17
17 17 17 17 17 16 16 16 16 15 16 16 16 16 16 16 16 16 17 17 17 16 17 17 17 17 16 16 16 17 17 17 16
17 17 17 17 17 17 17 17 17 17 17 17 17 17 17 18 18 18 18 18 18 16 17 17 17 17 17 16 16 16 16 17 17
18 18 18 18 18 17 18 17 17 17 18 18 18 18 18 18 18 18 18 18 18 17 17 17 18 18 17 17 16 16 16 16 16
18 18 18 18 18 18 18 18 18 18 18 18 18 18 18 18 18 18 18 18 18 17 18 18 18 17 17 17 16 16 16 16 16
19 19 18 18 18 18 18 18 18 18 18 18 18 18 18 18 18 18 18 18 17 18 18 18 18 17 17 17 17 16 16 16 16
18 18 18 18 18 18 18 18 18 18 18 17 17 17 17 17 17 17 17 17 17 17 17 17 17 17 17 17 17 16 16 16 16
19 18 18 18 18 18 17 17 17 17 17 17 17 17 17 16 17 16 16 16 16 16 16 16 16 17 18 17 17 17 17 16 16
18 18 17 17 17 17 17 17 17 16 16 17 16 16 16 16 16 16 16 16 15 16 15 15 15 16 16 16 16 16 16 16 16
18 18 17 17 17 17 17 16 16 16 16 16 16 16 16 15 15 14 14 14 15 15 14 13 14 14 14 15 15 15 15 15 15
17 17 16 16 16 16 16 16 15 14 14 14 15 15 15 14 13 13 13 14 13 13 13 13 12 12 12 13 13 14 14 13 13
17 16 15 15 16 15 14 14 13 12 12 13 13 14 13 12 12 13 13 12 12 11 12 11 11 11 10 11 11 12 12 12 13
16 15 15 15 15 14 13 12 12 11 10 11 12 13 12 11 11 13 12 11 11 10 10 10 10 10 9 9 10 11 10 11 11
15 14 14 13 13 11 11 11 10 10 9 9 10 12 12 11 11 11 11 11 9 10 9 9 9 8 8 8 8 8 9 9 10
14 13 12 12 11 10 10 9 9 8 8 7 6 5 8 10 11 9 9 8 9 9 8 8 7 6 7 7 7 7 7 8 9
12 12 11 10 10 9 8 8 7 7 7 7 6 4 4 4 8 8 7 7 6 6 6 6 6 6 6 6 6 5 6 7 7
11 10 10 9 9 8 8 7 7 7 6 6 6 6 6 3 3 6 5 6 5 5 5 5 5 5 5 5 5 5 5 6 6
10 9 9 8 8 7 7 7 6 6 5 5 4 5 5 5 2 3 3 4 4 4 4 4 4 4 4 4 4 4 4 4 5

GFSFLT1_925_temp_033.txt.gz
Temp
17 17 17 16 16 16 15 15 16 16 16 16 15 15 15 15 16 16 16 16 16 16 16 17 17 16 16 17 16 16 16 16 16
18 17 17 16 16 16 16 15 15 15 15 16 15 15 16 16 16 16 16 16 16 16 16 17 17 17 16 17 17 17 17 17 17
17 17 17 16 16 16 15 15 15 15 16 16 16 16 16 16 16 16 16 16 16 16 16 16 17 17 17 17 17 17 17 17 17
17 17 17 17 16 16 16 16 16 15 15 16 16 16 17 17 17 17 17 17 17 16 16 16 17 17 17 17 16 16 17 17 17
17 17 17 17 17 16 16 17 17 17 16 17 17 17 17 17 17 18 18 18 18 17 16 17 17 17 17 17 16 16 16 16 16
17 17 17 17 17 17 17 17 17 17 17 17 17 17 17 17 17 17 18 18 18 17 17 17 17 17 18 17 17 17 16 16 16
18 18 18 17 17 17 17 17 17 17 17 18 18 17 17 17 17 17 17 17 16 17 17 17 17 17 17 17 17 17 16 16 16
18 18 18 18 17 18 17 17 17 17 17 18 17 17 17 16 16 16 16 16 16 16 16 17 17 17 17 17 17 16 16 16 16
18 18 18 18 18 17 17 17 18 18 17 17 16 16 16 16 16 16 16 16 16 15 16 16 16 16 16 17 17 16 16 16 16
18 17 17 17 17 17 17 17 17 17 16 16 16 16 16 16 15 15 15 15 15 15 15 15 15 15 16 16 16 15 15 15 15
17 17 17 17 17 16 16 16 16 16 16 16 16 15 15 15 15 14 14 14 14 14 13 13 14 13 14 14 14 14 14 14 14
17 17 17 17 16 16 16 15 15 15 15 15 15 15 15 14 13 13 13 13 13 13 11 11 11 11 12 12 13 13 13 13 13
17 17 17 16 15 15 15 15 15 14 14 14 14 14 14 13 12 12 12 12 12 11 11 11 10 10 10 11 11 11 12 12 12
17 16 15 15 15 15 14 13 13 12 12 12 13 13 12 11 11 12 11 11 11 10 10 10 10 9 9 9 10 10 10 10 10
16 15 15 14 14 14 13 12 11 10 10 11 12 12 11 11 11 11 10 10 10 9 9 9 9 8 7 7 8 8 8 9 9
15 14 14 13 13 11 11 10 10 9 8 9 9 11 10 10 10 10 9 9 9 9 9 8 7 7 6 6 6 7 7 7 8
14 13 12 12 11 10 9 9 8 8 7 6 5 4 7 9 12 10 9 9 8 8 7 6 6 5 5 5 5 5 6 6 7
12 12 11 10 9 9 8 7 7 6 7 6 6 3 3 3 7 8 7 7 5 5 5 5 4 4 4 4 4 4 5 5 6
11 10 10 9 8 8 7 7 6 6 5 6 6 5 5 2 2 5 5 4 3 3 4 4 4 4 3 3 3 3 4 4 5
10 9 8 8 7 7 7 6 6 5 5 4 3 3 4 3 1 2 2 2 3 2 3 3 3 3 3 3 3 3 3 4 4

GFSFLT1_925_temp_036.txt.gz
Temp
17 17 17 16 16 16 15 16 16 16 17 17 16 16 16 16 16 16 16 16 16 15 16 16 17 17 16 16 17 17 16 16 16
17 16 16 16 16 16 15 16 15 15 15 16 16 16 16 16 16 16 16 16 16 15 16 16 17 17 18 18 17 17 17 17 17
17 17 17 16 16 16 15 15 15 15 15 16 16 16 16 16 16 16 17 16 17 15 16 16 16 17 17 17 17 17 17 17 17
18 17 17 16 16 15 15 15 15 15 15 15 16 16 16 16 16 17 17 17 17 15 16 16 16 17 17 17 17 17 16 17 17
17 17 17 16 16 16 15 16 16 16 16 16 16 16 17 17 17 17 17 17 17 17 17 16 17 17 17 17 17 16 16 16 16
17 17 17 17 16 16 16 16 16 16 17 17 17 17 17 17 17 17 16 17 16 17 17 17 17 17 17 17 17 17 17 16 16
17 17 17 17 17 17 17 17 17 17 17 17 17 17 17 16 16 16 16 16 16 16 16 16 16 16 17 17 17 17 17 17 16
17 17 17 17 17 17 17 17 17 17 17 17 17 17 16 16 16 16 16 16 15 15 16 16 16 16 16 16 16 16 16 16 16
17 17 17 17 17 17 17 17 17 17 16 16 16 16 16 15 15 15 15 15 15 15 15 15 15 15 15 15 15 15 15 15 15
17 17 17 17 17 17 16 16 17 16 16 15 15 15 15 15 15 14 14 14 14 14 14 14 14 13 14 14 14 14 14 14 14
17 17 16 16 16 16 16 16 15 15 15 15 15 15 14 14 13 13 13 13 13 12 12 12 11 11 12 12 12 12 12 13 13
17 16 16 16 15 15 15 15 14 15 14 14 14 14 13 13 12 12 12 12 12 11 10 10 10 10 11 11 11 12 12 12 11
16 16 15 15 15 15 15 14 14 13 13 13 14 13 13 12 11 11 11 11 11 11 10 10 10 9 9 10 10 10 11 10 10
16 17 15 15 15 14 14 13 12 12 12 13 13 13 12 10 11 11 11 10 10 10 9 9 9 8 7 8 8 9 9 9 9
16 15 15 14 14 13 13 12 11 9 10 11 12 11 10 10 10 10 10 10 9 9 8 8 8 7 6 6 6 7 8 8 8
15 15 14 13 13 11 11 10 10 9 9 9 10 10 10 9 9 9 8 8 8 8 8 8 7 6 5 5 5 6 6 6 7
14 13 12 12 11 10 9 9 8 7 6 6 4 3 7 9 10 9 9 8 9 8 6 6 5 5 5 4 4 4 4 5 6
13 12 11 10 10 9 8 7 7 6 6 5 5 3 2 2 6 8 7 6 5 5 4 4 4 4 3 3 3 3 4 4 5
11 11 10 9 8 8 7 6 6 6 4 5 5 4 4 1 1 4 5 3 3 2 2 3 3 3 3 3 3 2 3 4 4
10 9 9 8 8 7 6 6 5 5 4 3 3 3 3 2 -0 1 1 1 1 1 2 2 2 2 2 2 2 2 3 3 3

GFSFLT1_925_temp_039.txt.gz
Temp
17 17 17 16 16 16 15 16 16 16 16 16 16 16 16 16 16 16 16 16 16 15 16 16 17 17 17 17 17 17 17 17 17
17 17 17 16 16 16 15 16 15 15 16 16 16 16 16 15 15 16 16 16 16 15 16 16 16 17 17 17 17 17 17 17 17
18 17 17 16 16 16 15 15 15 15 15 15 16 16 16 16 15 16 16 17 17 15 16 16 16 16 17 17 17 17 17 17 17
18 18 17 16 16 16 15 15 15 15 15 15 16 16 16 16 16 17 17 17 17 16 16 16 16 16 17 17 17 17 17 17 17
17 17 16 16 16 16 15 15 15 16 16 16 16 16 17 17 17 17 17 17 17 17 16 17 17 17 17 17 17 17 17 17 16
17 17 17 16 16 16 16 16 16 16 17 17 17 17 17 17 16 16 16 16 16 16 16 16 16 17 17 17 17 17 17 17 17
17 17 17 17 17 17 17 16 17 17 17 17 17 17 16 16 16 16 16 16 16 16 16 16 16 16 16 16 16 16 16 16 16
17 17 17 17 17 17 17 17 17 17 17 17 17 16 16 16 16 16 16 15 15 15 15 15 15 15 15 15 15 15 15 15 15
17 17 17 17 17 17 17 16 16 17 16 16 16 15 15 15 15 15 15 15 15 14 14 14 14 14 14 14 14 14 14 14 14
17 17 17 17 17 17 16 16 16 15 15 15 15 15 15 15 14 14 14 14 13 13 13 13 12 12 13 13 12 12 13 13 13
17 17 16 16 16 16 16 16 15 15 15 15 14 14 14 13 13 13 12 12 12 11 11 11 11 11 11 11 11 12 12 12 12
17 17 17 16 16 16 15 15 15 14 14 14 13 13 13 12 12 11 11 11 11 10 9 9 9 9 10 10 10 11 11 11 11
16 16 16 16 15 15 15 14 13 13 13 13 13 12 12 11 11 11 10 10 10 10 10 9 9 7 8 9 9 9 10 10 9
16 15 15 15 15 14 14 13 12 11 12 13 12 12 11 10 10 10 10 9 9 9 9 9 9 8 7 7 8 8 8 9 8
15 15 14 14 14 13 13 12 11 10 11 12 11 10 10 9 9 9 9 9 8 8 7 7 7 8 7 5 6 6 7 7 7
15 14 14 14 14 12 11 11 10 9 9 9 10 9 9 9 9 9 9 8 7 7 6 6 6 5 6 4 4 5 5 6 6
14 14 13 13 12 11 10 10 8 7 7 6 6 9 10 8 8 8 7 7 6 7 6 5 5 4 4 3 3 3 4 5 6
13 13 12 11 10 10 9 8 8 6 5 6 7 9 9 6 6 7 6 5 5 4 3 3 3 3 3 3 2 3 3 4 5
12 12 11 10 9 8 7 7 7 6 5 5 4 5 4 6 6 5 5 3 3 2 2 2 2 2 2 2 1 2 2 3 4
10 10 10 9 8 7 7 6 6 5 4 3 3 3 3 2 3 5 5 3 3 2 2 1 1 1 1 1 1 1 1 2 3

GFSFLT1_925_temp_042.txt.gz
Temp
17 17 17 16 16 15 16 16 16 17 17 16 16 16 16 16 18 17 17 17 16 15 16 16 16 17 17 17 17 17 17 17 17
17 17 17 16 16 16 16 15 15 16 16 16 16 16 16 17 18 18 17 17 17 15 16 16 16 17 17 17 17 17 18 17 17
17 17 17 16 16 16 15 15 15 15 15 16 16 16 16 17 18 18 17 17 17 16 16 16 16 16 17 17 17 17 17 17 17
17 17 17 16 16 16 15 15 15 15 15 16 16 16 17 17 18 17 18 17 17 16 16 16 17 17 17 17 17 17 17 17 17
18 17 17 16 16 16 16 16 16 16 16 16 17 17 17 18 18 18 17 17 16 16 16 16 16 17 17 17 17 17 17 17 17
17 17 17 16 16 16 16 16 16 17 17 17 17 17 18 18 18 17 16 16 16 16 16 16 16 16 16 16 16 16 17 17 17
18 17 17 17 17 17 17 17 17 17 18 18 17 18 18 17 17 17 16 16 15 16 16 15 15 15 16 15 15 15 15 15 15
18 18 18 17 17 17 17 17 17 17 17 17 17 17 17 17 16 15 15 15 15 15 15 15 14 14 14 14 14 14 14 14 14
18 18 18 17 18 17 17 17 16 16 15 16 17 16 16 16 16 15 14 14 14 14 14 13 13 13 13 13 13 13 13 13 13
18 18 18 17 17 17 16 16 16 16 16 16 15 15 15 14 15 14 13 13 13 13 12 12 12 12 12 12 12 12 12 12 12
17 17 17 17 17 16 15 15 15 15 15 15 15 14 14 14 13 13 11 12 11 10 10 10 10 10 10 11 11 11 11 11 11
17 17 16 17 16 15 15 14 14 14 14 14 14 14 13 13 12 12 12 11 10 10 9 9 9 9 9 10 10 10 10 10 11
16 16 16 15 14 14 14 14 14 13 13 14 14 13 12 12 12 11 11 10 10 10 10 10 9 9 8 8 9 9 9 9 9
16 16 15 13 13 14 13 12 12 12 12 13 13 12 12 11 11 11 10 9 9 9 8 8 8 7 7 7 7 8 8 8 8
16 15 15 13 13 12 11 11 11 11 11 12 13 11 11 11 11 10 10 9 8 8 8 8 8 7 6 6 6 6 6 7 7
15 13 13 12 12 11 11 11 11 10 10 12 13 12 11 10 10 10 10 9 8 8 8 8 7 8 6 6 5 5 5 6 6
15 12 11 11 11 10 10 10 10 9 8 10 11 14 13 11 10 10 9 9 8 8 7 7 6 6 6 6 4 4 4 4 5
14 11 11 10 10 9 9 9 9 10 8 8 10 13 13 11 11 10 9 8 8 7 6 6 6 5 5 5 4 3 3 3 4
11 10 10 10 9 9 8 8 8 8 9 8 7 7 8 10 10 10 9 8 7 6 5 5 5 5 4 4 3 2 2 2 3
9 9 9 8 8 7 7 7 7 7 7 7 7 7 7 6 7 8 9 7 7 6 5 4 4 4 4 4 3 2 1 2 2

GFSFLT1_925_temp_045.txt.gz
Temp
17 16 16 16 16 16 16 17 17 17 17 17 16 16 17 18 19 19 19 18 17 16 16 16 16 17 17 17 17 17 17 17 17
17 17 17 16 16 15 15 16 16 16 16 16 16 16 17 17 19 19 19 18 17 16 17 17 16 16 17 17 17 17 17 17 17
17 17 17 17 16 16 15 15 15 16 16 16 16 17 17 18 19 19 19 18 17 16 17 17 17 17 17 17 17 17 17 17 17
17 17 17 17 16 16 16 16 16 16 16 16 16 17 17 18 19 19 19 18 17 17 16 16 17 17 17 17 17 17 17 17 17
17 17 17 17 16 16 16 16 16 16 17 17 17 17 18 19 19 19 18 17 16 16 16 16 16 16 16 16 16 17 17 17 17
18 17 17 17 17 16 16 17 17 17 17 17 17 18 19 19 19 18 17 16 16 16 16 16 16 16 16 15 15 15 15 15 16
19 17 17 17 17 17 17 17 17 18 19 18 18 19 19 19 18 17 16 16 15 15 15 15 15 14 14 14 14 14 14 14 14
18 18 18 18 18 18 18 18 18 18 18 18 18 18 18 18 18 17 16 15 15 15 15 14 13 13 14 13 13 13 13 13 13
19 20 19 19 19 19 18 18 17 17 17 18 18 17 17 17 17 16 15 14 14 14 13 13 12 12 13 12 12 12 12 12 13
20 20 19 19 19 18 17 17 17 17 17 17 17 16 16 16 16 15 14 13 12 12 12 11 11 11 11 11 11 11 12 12 12
20 19 18 18 18 17 17 17 17 17 16 17 17 16 16 15 14 15 13 12 11 10 10 10 10 10 10 11 11 11 11 10 11
18 17 17 16 17 17 16 16 16 16 15 16 16 15 15 14 14 13 13 11 11 11 11 11 11 10 9 10 10 10 10 10 10
17 16 16 16 16 16 16 15 15 15 14 15 15 14 14 14 13 13 12 12 12 11 10 10 10 10 9 9 9 9 9 9 9
16 16 16 15 15 15 15 14 14 14 14 14 14 14 13 13 13 12 11 10 10 10 10 9 9 8 8 7 8 8 8 8 8
16 16 15 15 14 14 13 13 12 12 12 13 14 13 12 12 12 12 11 11 9 9 9 9 9 8 8 7 7 6 7 7 7
15 15 14 14 14 14 13 12 12 11 11 13 14 13 12 12 12 11 11 11 10 9 9 8 8 8 7 7 6 6 6 6 6
14 14 14 13 13 12 12 12 12 11 10 11 12 14 13 13 12 12 11 10 10 9 8 8 7 7 6 6 6 5 5 4 5
14 13 13 12 12 11 11 10 11 11 10 9 11 13 14 11 13 11 11 10 10 8 8 7 7 6 6 6 5 4 4 4 4
12 12 11 11 11 10 10 9 10 10 10 10 9 8 9 10 10 12 11 11 9 9 8 7 6 6 6 5 5 4 3 3 3
11 11 10 10 10 9 9 9 9 9 9 8 8 8 8 8 8 8 10 9 9 8 8 7 6 5 5 5 4 4 3 3 2

GFSFLT1_925_temp_048.txt.gz
Temp
16 17 17 16 16 16 16 16 16 16 17 17 17 17 18 18 19 19 18 18 18 16 16 16 16 16 17 17 17 17 17 17 17
16 17 16 16 16 16 16 16 17 17 16 16 16 17 18 19 19 19 18 18 17 16 17 17 17 17 16 17 17 17 17 17 17
16 16 16 16 16 16 16 16 16 16 16 17 17 17 18 18 18 19 18 18 17 17 17 17 17 17 17 17 17 17 17 17 17
16 16 16 16 16 16 16 16 16 17 17 17 17 18 18 19 19 18 18 18 16 17 16 16 16 16 16 16 16 16 17 17 17
17 17 17 17 16 16 16 17 17 17 17 17 18 18 18 19 18 19 18 17 16 16 16 16 16 16 15 15 15 15 15 15 15
17 17 17 17 17 17 17 17 17 17 18 18 18 18 19 19 18 18 17 17 16 16 15 15 15 15 14 14 14 14 14 14 14
17 17 17 17 17 17 17 18 18 17 17 18 18 18 18 18 18 18 17 17 15 15 15 14 14 14 14 14 13 13 13 13 13
18 18 18 18 18 18 18 18 17 18 18 18 18 18 18 18 17 17 17 16 15 15 14 13 13 13 13 13 12 13 13 13 13
19 19 18 18 19 18 18 18 18 18 17 18 17 17 17 17 16 16 16 15 14 13 13 12 12 12 12 12 12 12 12 12 12
19 19 19 19 19 18 18 18 17 17 17 17 17 16 16 16 15 15 15 14 12 12 11 11 11 11 11 11 11 11 11 11 11
20 19 19 19 19 18 17 17 17 17 16 16 16 16 16 15 15 14 13 13 12 11 10 10 10 10 10 11 11 11 11 10 10
20 19 19 18 18 17 17 17 16 16 16 15 15 15 15 15 14 13 13 12 12 11 11 11 10 10 9 10 10 10 10 9 9
19 18 17 17 17 16 16 16 16 15 15 15 15 14 14 13 13 13 12 11 11 11 10 10 9 9 9 9 9 9 9 8 8
18 17 17 16 16 16 15 15 15 14 14 14 14 14 13 13 13 12 12 11 11 10 9 9 9 9 9 8 8 8 8 7 7
17 17 16 16 16 15 14 14 14 13 13 13 14 14 13 12 12 12 11 11 11 10 9 9 8 8 8 8 8 7 7 7 7
16 16 15 15 15 14 14 13 13 12 13 13 13 13 13 12 12 11 11 11 10 10 9 9 8 7 7 6 7 7 6 6 6
15 15 15 15 14 14 13 13 12 11 11 11 11 9 11 12 12 11 11 11 10 10 9 8 8 7 6 6 6 6 5 5 5
14 14 14 14 14 13 12 12 12 11 10 10 10 8 8 8 12 12 11 11 10 9 9 8 7 7 6 6 5 5 5 5 5
13 13 13 13 13 12 11 11 11 11 10 9 9 9 9 6 5 10 10 10 9 9 8 8 7 7 6 6 5 5 5 4 4
11 12 12 12 12 11 10 10 10 10 9 9 8 8 8 8 6 4 7 8 8 7 7 7 7 6 6 5 5 4 4 4 4

GFSFLT1_925_temp_051.txt.gz
Temp
16 16 15 15 16 16 16 16 16 16 17 17 18 18 18 18 19 18 18 17 17 16 17 17 16 17 17 17 17 17 17 17 17
16 16 16 16 16 16 16 16 16 16 16 17 17 18 18 18 18 18 18 18 17 16 17 17 17 17 17 17 17 17 17 17 17
16 17 17 16 16 15 16 16 16 17 17 17 18 18 18 18 18 18 18 18 17 16 17 16 16 16 16 16 16 17 17 17 17
16 16 16 16 16 17 17 17 17 17 17 18 18 18 18 18 18 18 18 17 17 16 16 16 16 16 16 16 16 16 16 16 16
17 17 17 16 17 17 17 17 17 17 18 18 18 18 18 18 18 18 18 17 16 16 15 15 15 15 15 15 15 15 15 14 14
17 17 17 17 17 17 17 17 17 17 18 18 18 18 18 18 17 18 17 17 16 15 15 15 14 14 14 14 14 14 14 14 14
17 17 17 17 17 17 18 17 17 17 17 18 18 18 17 17 17 17 17 17 15 15 14 14 14 14 13 13 13 13 13 13 13
17 17 17 17 18 18 17 17 17 18 18 17 17 18 17 17 17 16 16 16 15 14 13 13 13 13 12 12 12 12 12 12 12
18 18 18 18 18 17 17 17 18 18 17 17 17 17 17 16 16 15 15 15 14 13 12 12 12 12 12 12 12 12 12 11 11
18 19 18 18 18 17 17 17 17 17 17 17 17 17 16 16 15 15 14 14 12 12 11 11 11 11 11 11 11 11 11 11 10
19 19 18 18 18 17 17 17 17 17 17 16 16 16 15 15 14 14 13 13 12 11 11 10 10 10 10 11 11 10 10 10 10
19 18 19 18 17 17 17 17 17 16 16 16 15 15 15 14 14 13 13 12 12 11 11 10 10 9 10 10 10 10 9 9 9
19 19 18 18 17 17 17 16 16 16 16 15 15 14 14 14 13 13 12 12 11 11 10 10 9 9 9 9 9 9 8 8 8
19 19 18 17 17 16 16 16 16 15 15 15 14 14 14 13 13 12 12 11 11 11 10 10 9 9 8 9 9 9 8 8 7
19 18 17 17 17 16 16 15 15 14 14 14 14 13 13 12 12 12 12 11 11 10 10 9 9 9 8 7 7 8 7 7 7
19 18 17 16 16 16 15 15 14 14 14 13 13 13 12 12 12 12 11 11 10 10 9 9 9 8 8 7 6 7 7 6 6
18 17 16 16 16 15 15 14 13 12 12 12 10 9 11 12 12 11 11 11 10 10 9 9 8 8 7 7 6 6 6 6 6
17 16 16 15 15 15 14 14 14 12 11 11 11 8 8 7 11 10 10 10 10 9 8 8 8 7 7 7 6 6 5 5 6
15 15 14 14 14 14 13 13 13 12 11 10 10 10 9 6 7 10 10 9 9 8 8 8 7 7 7 6 6 6 5 5 5
14 14 14 13 13 12 13 12 12 11 11 10 9 8 8 8 5 4 6 8 8 8 7 7 6 6 6 6 5 5 5 5 5

GFSFLT1_925_temp_054.txt.gz
Temp
16 16 16 16 16 16 16 17 16 16 16 17 18 18 18 17 18 18 17 17 16 17 17 17 17 17 17 17 16 16 16 17 16
16 16 15 15 15 16 16 15 16 16 17 18 18 18 18 18 18 18 17 17 17 17 17 17 16 16 16 17 17 16 16 17 17
16 15 15 15 15 16 15 16 17 18 18 18 18 18 18 18 18 18 18 17 17 16 16 16 16 16 16 16 16 16 16 17 16
16 16 16 15 15 16 16 17 17 17 18 18 18 17 18 18 18 18 18 18 16 16 16 16 16 16 15 15 15 15 15 15 15
17 17 16 16 16 17 17 17 17 17 17 17 17 17 17 17 17 17 17 17 16 15 15 15 15 15 14 14 14 14 14 14 14
17 17 17 17 17 17 17 17 17 17 17 17 17 18 18 18 17 17 17 16 16 15 15 14 14 14 13 13 13 13 13 13 13
17 17 17 17 17 17 17 17 17 17 17 17 17 18 18 17 17 17 16 16 15 14 14 13 13 13 13 13 13 13 12 12 12
17 17 17 17 17 17 17 17 17 17 17 17 17 17 17 17 16 16 16 15 15 14 13 13 12 12 12 12 12 12 12 12 11
17 17 17 17 17 17 17 17 17 17 17 17 17 17 17 16 16 16 15 15 14 13 12 12 12 12 12 12 11 11 11 11 11
17 17 18 18 17 17 17 17 17 17 17 17 17 17 16 16 15 15 14 14 12 12 12 11 11 11 11 11 11 11 11 10 10
17 18 18 18 17 17 17 17 17 17 17 16 16 16 16 15 14 14 13 13 12 11 11 11 10 10 11 11 10 10 10 9 9
18 18 18 18 17 17 17 17 17 17 16 16 15 15 15 14 14 13 13 12 12 11 10 10 10 10 10 10 10 10 9 9 9
18 18 18 17 17 17 16 16 16 16 16 15 15 14 14 14 13 13 12 12 12 11 11 10 9 9 9 10 10 9 9 8 8
19 19 18 17 17 17 17 16 16 15 15 15 14 14 14 13 13 12 12 11 11 11 10 10 10 9 9 9 8 9 8 8 8
19 18 18 17 17 17 16 16 15 15 15 14 14 13 13 12 12 12 11 11 11 10 10 10 9 9 9 8 7 8 8 8 7
19 18 17 17 17 17 16 15 15 14 14 13 12 12 12 12 12 11 11 11 10 10 9 9 9 8 8 8 7 7 7 7 7
18 18 17 17 17 16 16 16 14 13 13 13 11 10 11 11 11 11 11 10 10 9 9 8 8 7 7 7 6 6 6 6 7
18 18 18 17 16 16 15 15 15 13 11 12 11 7 9 7 10 10 10 10 9 8 8 8 8 7 6 6 6 6 5 6 6
18 17 17 16 16 15 15 14 14 13 12 10 11 10 10 7 8 9 8 9 8 8 8 7 7 6 6 6 5 5 5 5 6
16 16 15 15 15 14 14 13 13 12 12 11 9 9 8 8 6 6 6 8 8 8 7 7 6 5 5 5 4 3 4 4 4

GFSFLT1_925_temp_057.txt.gz
Temp
16 16 16 16 17 17 16 17 17 17 17 17 17 17 17 17 17 17 17 17 16 17 17 17 17 17 16 17 17 16 16 16 16
16 16 15 16 16 16 16 17 17 17 16 17 17 17 17 18 18 17 17 17 17 16 16 16 16 16 16 16 17 16 16 16 16
16 15 16 15 16 16 16 16 16 16 16 17 17 17 18 18 18 18 17 17 16 16 16 16 16 16 16 16 16 15 15 16 16
16 15 15 15 15 15 16 16 16 17 17 17 17 17 17 18 17 17 17 17 16 16 15 16 15 15 15 15 15 14 14 15 15
16 16 15 15 15 16 16 16 17 17 17 17 17 17 17 18 17 17 16 16 16 15 15 15 15 14 14 14 14 14 14 14 14
17 17 16 16 16 16 16 17 17 17 17 17 17 18 18 17 17 16 16 16 15 15 14 14 14 13 13 13 13 13 13 13 13
17 17 17 17 17 16 16 17 17 16 16 17 17 17 17 17 16 16 16 15 15 14 14 13 13 13 13 12 12 12 12 12 12
16 16 17 16 16 16 16 16 17 17 16 17 17 17 17 17 16 16 15 15 14 14 13 13 12 12 12 12 12 12 12 11 11
16 16 17 17 17 16 16 16 16 17 16 17 17 17 16 16 16 16 15 15 14 13 12 12 12 12 12 11 11 11 11 11 11
16 16 16 17 17 16 16 16 17 17 17 17 16 16 16 16 15 15 14 14 13 12 12 12 11 11 11 11 11 10 10 10 10
17 17 17 17 17 17 16 16 16 16 16 16 16 16 16 15 14 14 13 13 12 11 11 11 11 11 11 10 10 10 10 9 9
17 17 17 17 17 17 16 16 16 16 16 16 16 15 15 14 14 13 13 12 12 11 11 10 10 10 10 10 10 10 9 9 8
18 17 17 17 17 17 16 16 16 16 16 15 15 15 14 14 13 13 12 12 12 11 11 10 10 9 9 10 10 9 9 9 8
18 18 17 17 17 17 16 16 16 15 15 15 14 14 14 13 13 12 12 12 11 11 11 10 10 10 9 9 9 9 9 8 8
18 18 18 17 17 16 16 16 15 15 15 14 13 13 13 12 12 12 11 11 11 10 10 10 9 9 9 8 8 8 8 8 7
19 18 18 17 17 17 16 15 15 14 14 13 12 12 12 12 11 11 11 11 10 10 9 9 9 8 8 7 7 7 7 7 7
19 18 18 17 17 16 16 16 15 14 13 13 11 9 10 11 10 10 10 10 9 9 9 8 8 8 7 7 6 6 6 6 7
19 19 19 18 17 16 16 16 16 14 12 12 12 7 8 8 10 10 10 9 9 9 8 8 7 7 6 6 6 6 5 5 6
18 18 18 18 16 16 15 15 15 15 13 11 11 11 11 7 8 8 8 8 8 8 8 7 7 6 5 5 5 4 4 5 5
17 17 17 16 16 15 14 13 13 14 13 12 10 9 9 9 7 6 6 7 8 8 7 6 5 5 4 4 4 3 3 3 4

GFSFLT1_925_temp_060.txt.gz
Temp
16 16 17 18 18 17 17 17 17 18 17 16 16 17 17 17 17 17 17 16 16 17 17 16 16 16 16 17 16 16 16 17 16
16 16 17 17 17 17 17 17 17 17 17 16 17 17 17 18 17 17 16 16 17 17 16 16 16 16 16 16 16 16 16 16 17
16 15 16 16 16 16 16 16 16 16 16 16 17 17 17 17 17 17 17 16 16 16 16 16 16 15 15 15 15 15 15 15 15
15 15 15 15 16 16 16 16 17 16 15 16 17 17 17 17 17 17 16 17 16 16 16 15 15 15 14 14 14 14 14 14 15
16 16 15 15 15 16 16 16 16 15 16 16 16 17 17 17 17 16 16 16 15 15 15 15 14 14 13 13 13 13 13 13 13
17 17 16 15 16 16 16 16 16 16 16 16 17 17 17 17 16 16 16 15 15 15 14 14 14 13 13 13 13 13 12 12 12
16 17 16 16 16 16 16 16 16 16 16 16 17 17 17 16 16 16 16 15 15 14 13 13 13 13 12 12 12 12 12 12 12
16 16 16 16 16 16 15 16 16 16 16 17 17 17 17 16 16 16 15 15 14 13 13 13 12 12 12 12 12 12 11 11 11
16 16 16 16 16 16 16 16 16 16 16 17 17 16 16 16 16 16 15 15 14 13 12 12 12 12 12 11 11 11 11 10 10
17 16 16 16 16 16 16 16 16 16 16 16 16 16 16 16 15 15 14 14 13 12 12 12 11 11 11 11 11 10 10 10 10
17 16 16 16 16 16 16 16 16 16 16 16 16 16 16 15 15 14 13 13 12 12 11 11 11 11 11 11 10 10 9 9 9
17 17 16 16 16 16 16 15 15 16 16 16 16 15 15 14 14 13 13 12 12 11 11 11 10 10 11 10 10 10 9 9 9
17 17 17 17 16 16 16 15 15 15 15 15 15 15 14 14 13 13 12 12 12 11 10 10 10 10 10 10 10 9 9 9 8
17 17 17 17 16 16 16 15 15 15 15 15 14 14 14 13 13 12 12 11 11 11 10 10 10 10 9 9 9 9 9 9 8
18 18 18 17 16 16 15 15 15 15 15 14 13 13 13 13 12 12 11 11 11 10 10 10 10 9 9 8 8 8 8 8 8
18 18 18 17 17 16 16 15 15 14 14 13 12 12 12 12 11 11 11 11 10 10 10 9 9 9 9 8 8 7 7 7 8
18 18 18 17 17 16 16 15 14 14 13 13 11 8 10 10 10 10 10 10 10 9 9 9 9 8 8 8 7 7 6 6 7
18 18 18 17 17 17 16 15 15 14 12 13 13 7 8 7 9 9 9 9 9 9 8 8 8 8 7 7 6 6 5 5 6
17 18 17 17 17 16 16 15 14 14 13 11 11 11 11 7 7 7 8 8 8 8 7 7 7 7 6 5 5 4 3 4 5
17 17 17 17 16 15 15 15 13 13 13 12 9 9 9 9 8 7 5 6 7 7 7 6 6 5 5 4 4 3 2 3 4

GFSFLT1_925_temp_063.txt.gz
Temp
17 17 18 18 18 18 18 17 17 17 17 16 16 17 17 17 17 17 17 17 17 17 17 17 17 16 17 16 16 16 16 16 17
16 17 18 18 17 17 17 17 16 17 17 16 17 17 17 17 17 17 16 17 17 16 16 16 16 16 16 16 16 16 16 16 16
16 16 16 17 17 16 17 17 16 17 17 16 17 17 17 17 17 17 16 16 16 16 16 16 15 15 15 15 15 15 15 15 15
15 16 16 16 16 16 17 16 16 16 16 17 17 17 17 17 17 16 16 16 16 16 16 16 15 14 14 14 14 14 14 14 15
15 16 16 16 16 16 16 16 15 15 16 16 17 17 17 17 17 16 16 16 16 15 15 15 14 14 14 13 13 13 13 13 13
16 16 16 16 15 16 16 15 15 16 16 16 16 17 17 16 16 16 16 15 15 14 14 14 13 13 13 13 13 12 12 12 12
17 16 16 16 16 16 16 15 16 16 16 16 17 17 17 16 16 16 15 15 14 14 13 13 13 13 12 12 12 12 12 12 11
16 16 16 15 16 15 15 15 16 16 16 16 17 17 16 16 16 16 16 15 14 13 13 13 13 12 12 12 12 12 11 11 11
16 16 16 16 16 16 15 16 16 16 16 16 17 17 16 16 16 16 15 14 14 13 13 12 12 12 12 11 11 11 11 10 10
16 16 16 16 16 16 16 16 16 16 16 16 16 16 16 16 16 15 15 14 13 13 12 12 12 12 11 11 11 10 10 10 10
16 16 16 16 16 16 16 16 16 16 16 16 16 16 16 15 15 14 13 13 13 12 12 12 12 11 11 11 11 10 10 9 9
17 17 16 16 16 16 16 15 15 16 16 16 16 15 15 15 14 13 13 12 12 12 11 11 11 11 11 11 10 10 9 9 9
17 17 16 16 16 16 15 15 15 15 16 16 15 15 14 14 14 13 12 12 12 11 11 10 10 10 10 10 10 10 9 9 9
17 17 17 16 16 16 15 15 15 15 15 15 14 14 14 14 13 13 12 12 11 11 11 11 11 10 9 9 9 9 9 9 9
17 17 17 16 16 15 15 15 15 15 15 14 13 13 13 13 13 12 12 11 11 11 11 10 10 10 10 9 8 8 8 8 8
17 17 17 17 16 16 16 15 14 14 14 13 12 11 12 12 12 11 11 11 11 10 10 10 10 9 9 9 9 8 7 7 8
17 17 18 17 16 16 15 15 13 13 13 12 11 13 11 10 10 11 10 10 10 10 10 9 9 9 9 8 8 8 6 6 7
18 17 17 18 17 16 16 15 15 13 12 13 14 11 14 10 8 9 10 10 9 9 9 9 9 8 8 8 7 6 6 5 6
17 17 16 17 16 16 16 16 15 14 13 11 12 12 12 12 10 7 8 8 8 9 8 8 8 7 7 6 6 5 5 4 5
16 16 17 17 17 16 16 15 14 14 13 13 10 9 10 10 10 9 6 7 7 7 7 7 7 6 6 5 4 4 3 3 3

GFSFLT1_925_temp_066.txt.gz
Temp
17 18 18 18 18 18 18 17 18 17 16 17 17 17 17 18 18 19 17 17 17 17 17 17 17 17 16 16 16 16 16 16 17
17 17 18 18 18 18 17 17 17 17 17 17 17 17 17 18 19 18 18 17 17 17 16 16 16 16 16 16 16 16 16 16 16
17 17 18 18 17 17 16 17 17 17 16 17 17 17 17 18 18 18 18 16 16 16 16 16 15 15 15 15 15 15 15 15 15
16 17 17 17 17 16 16 16 16 16 16 17 17 17 17 18 18 18 18 16 16 16 15 15 15 15 14 14 14 14 14 14 14
16 16 16 17 16 16 16 16 16 16 17 17 17 17 17 18 18 18 17 16 16 15 15 15 14 14 14 14 13 13 13 13 13
16 17 16 16 16 16 16 16 16 17 17 17 17 17 18 18 18 18 16 16 15 15 14 14 14 13 13 13 13 13 13 12 12
18 16 16 16 16 16 16 16 16 16 17 16 16 18 18 18 17 17 16 15 15 14 14 13 13 13 13 13 12 12 12 12 12
17 17 16 16 16 16 16 15 17 17 18 17 18 18 18 18 17 16 16 15 14 14 13 13 13 12 12 12 12 12 11 11 11
18 18 18 17 17 18 18 18 17 17 17 17 18 17 17 17 17 16 16 14 14 13 13 13 12 12 12 12 11 11 11 11 11
18 18 18 18 18 18 18 17 17 17 17 17 17 17 17 16 16 17 15 14 13 13 13 12 12 12 12 11 11 10 10 10 10
18 18 17 17 17 18 18 17 17 17 17 17 16 16 16 16 16 16 14 14 13 13 13 12 12 12 12 11 11 10 10 10 10
18 18 18 17 17 17 17 17 17 17 16 16 16 16 16 15 15 15 15 13 13 12 12 12 11 11 11 11 11 10 10 9 9
18 18 18 18 17 17 17 17 16 16 16 16 16 15 15 15 15 14 14 14 13 12 11 11 11 11 11 11 10 10 10 9 9
18 18 18 18 17 17 17 16 16 16 16 16 15 14 14 14 14 14 13 13 13 13 11 11 11 10 10 10 10 9 9 9 9
17 18 18 18 17 16 16 16 15 16 16 15 14 14 14 13 13 13 13 12 11 11 11 10 10 11 10 10 9 9 8 8 8
17 17 18 18 17 16 16 16 15 14 15 15 14 13 12 12 13 13 12 12 11 11 10 10 10 9 10 10 10 9 9 8 8
17 17 17 17 17 17 16 15 14 15 14 15 16 16 14 13 12 12 12 12 11 10 10 10 9 9 9 8 9 9 8 7 7
16 16 16 16 16 16 16 15 14 14 13 15 17 16 17 15 12 11 11 11 10 10 9 9 8 8 8 8 7 7 7 6 6
16 16 16 15 15 16 15 14 14 15 13 12 12 13 15 17 15 11 11 10 10 9 8 8 7 7 7 7 6 6 6 5 5
15 15 15 15 14 15 15 14 13 14 14 13 11 12 12 12 13 16 10 8 8 8 8 7 7 6 6 5 5 5 5 4 4

GFSFLT1_925_temp_069.txt.gz
Temp
17 17 18 18 18 18 18 18 18 17 17 17 17 17 18 19 20 19 18 17 17 17 17 17 16 16 16 17 16 17 17 17 16
17 18 18 18 18 18 17 17 17 17 17 17 17 18 18 19 19 18 18 17 17 17 16 16 16 16 16 16 16 16 16 16 16
17 17 18 18 18 17 17 17 17 16 17 17 17 18 18 20 20 18 17 17 17 16 16 15 15 15 15 15 15 15 15 15 15
17 17 18 17 17 17 16 17 17 17 17 17 18 18 18 19 19 18 17 17 16 16 15 15 15 14 14 14 14 14 14 14 14
17 17 17 17 17 17 16 17 17 17 17 17 17 18 18 19 19 19 17 16 16 15 15 15 14 14 14 13 13 13 13 13 13
17 17 17 17 17 17 17 16 16 17 17 17 17 18 19 20 19 18 17 16 15 15 14 14 13 13 13 13 13 13 13 12 12
19 17 17 17 16 16 16 16 17 17 17 17 17 18 19 19 19 18 16 15 15 14 14 13 13 13 13 13 12 12 12 12 12
18 17 16 16 16 16 16 16 16 18 19 19 18 19 20 19 18 17 16 15 14 14 13 13 13 13 12 12 12 12 11 11 11
19 19 18 18 17 18 17 18 18 19 19 19 19 19 19 19 18 17 16 15 14 14 13 13 13 12 12 12 11 11 11 11 11
20 20 20 19 19 19 19 19 19 19 19 19 19 19 18 18 18 17 16 14 14 14 13 13 12 12 12 11 11 11 10 10 10
20 20 20 19 19 19 19 19 19 19 19 19 18 18 18 17 17 17 15 14 14 13 13 13 12 12 12 11 11 10 10 10 10
20 20 19 19 19 19 19 19 19 19 18 19 18 18 17 17 16 17 16 13 13 13 13 12 12 12 12 11 11 10 10 10 9
20 20 20 19 19 19 19 19 18 18 18 18 18 17 17 17 16 16 16 15 13 12 12 12 12 12 11 11 11 10 10 10 9
19 19 20 20 19 19 19 19 18 18 18 18 17 17 16 16 16 16 15 15 14 13 12 11 11 11 11 10 10 10 9 9 9
19 19 19 20 19 18 18 18 18 18 17 17 17 16 15 15 15 15 15 14 13 13 12 11 11 11 10 10 9 9 9 9 9
19 19 19 19 19 18 17 18 17 17 17 17 16 15 15 14 14 14 14 14 13 13 12 11 11 11 10 10 10 10 9 9 8
19 19 19 19 19 19 17 17 17 16 16 16 16 16 15 14 14 14 14 14 13 12 12 11 11 11 10 9 9 9 9 8 8
18 18 18 18 19 19 18 17 17 16 15 16 17 16 16 15 14 13 13 13 13 12 11 11 11 10 9 9 8 8 9 8 7
17 17 17 17 18 18 18 18 17 16 15 14 15 16 16 16 13 13 13 13 13 11 11 10 10 9 8 8 7 7 7 7 6
16 16 16 16 17 17 17 17 17 15 15 14 14 14 13 14 14 13 11 12 12 11 10 9 8 8 7 7 6 6 6 6 5

GFSFLT1_925_temp_072.txt.gz
Temp
17 17 18 18 18 18 18 18 17 17 17 18 18 19 19 19 19 19 18 17 17 17 16 16 16 16 17 16 16 17 16 16 16
18 18 18 18 18 18 18 17 18 17 17 18 18 19 19 18 19 18 18 17 17 16 16 16 16 16 16 16 16 16 16 16 16
17 18 18 18 18 17 17 17 17 17 17 18 18 19 19 18 19 19 18 17 16 16 15 15 15 15 15 15 15 15 15 15 15
17 18 18 18 17 17 16 17 17 17 18 18 18 19 19 19 19 18 18 17 16 15 15 15 15 14 14 14 14 14 14 14 14
17 17 18 17 17 17 17 17 17 17 18 18 18 19 19 19 19 19 17 16 16 15 15 14 14 14 13 13 13 13 13 13 13
17 17 17 17 17 17 17 17 17 18 18 18 18 19 19 19 18 18 17 16 15 15 14 14 13 13 13 13 13 13 13 12 12
18 17 17 17 17 17 17 17 18 18 18 18 18 19 19 19 18 18 17 15 15 14 14 13 13 13 13 12 12 12 12 12 12
18 18 17 16 16 16 16 17 18 18 17 18 18 19 19 19 18 18 17 15 15 14 14 13 13 13 12 12 12 12 12 11 11
18 18 17 17 17 17 17 17 18 18 18 19 19 19 19 19 18 18 17 15 14 14 13 13 13 12 12 12 11 11 11 11 11
19 19 18 18 17 18 18 17 18 18 19 19 19 19 19 18 18 17 17 15 14 14 13 13 13 12 12 11 11 11 11 10 10
20 20 19 19 19 19 19 19 19 19 19 19 19 19 18 18 17 17 16 15 14 14 13 13 13 12 12 11 11 10 10 10 10
20 20 20 19 19 19 19 19 19 19 19 19 19 18 18 17 17 17 16 15 14 14 13 13 13 12 12 12 11 10 10 10 10
20 20 20 19 19 19 19 19 19 19 19 18 18 18 18 17 17 16 16 15 14 13 13 13 12 12 12 12 11 10 10 10 10
20 20 20 19 19 19 19 19 19 18 18 18 18 18 17 17 17 16 16 15 14 14 13 12 12 12 12 11 11 10 10 10 10
20 19 19 19 19 18 19 19 18 18 18 18 17 17 17 16 16 16 16 15 14 14 13 12 12 12 11 11 11 10 9 9 9
20 19 19 19 19 19 18 18 18 18 18 17 17 16 16 16 15 15 15 15 15 14 13 13 12 11 11 10 10 9 9 9 9
20 20 19 19 19 19 18 18 18 18 17 17 15 12 14 15 15 15 15 15 14 14 13 12 12 11 11 11 10 10 10 9 8
19 19 19 19 19 19 19 18 17 17 17 17 15 12 12 12 14 14 14 14 14 13 13 12 11 11 11 10 10 9 9 9 8
18 17 18 18 18 19 18 18 16 16 15 15 16 16 16 12 11 13 14 14 13 13 12 12 11 11 10 9 9 8 8 7 7
18 17 18 17 18 18 18 18 17 16 15 14 15 14 14 14 12 9 11 13 13 13 12 11 11 10 9 8 8 7 7 6 5

GFSFLT1_925_temp_075.txt.gz
Temp
17 18 18 18 18 18 18 18 17 18 18 19 18 19 19 18 19 18 18 17 17 17 16 16 16 16 16 16 17 16 17 16 16
18 18 18 18 18 18 18 18 18 18 18 19 18 18 18 18 18 18 18 17 16 16 16 16 15 16 16 16 16 16 16 16 16
18 18 18 18 18 17 17 18 18 18 18 19 19 18 18 18 19 18 18 17 16 16 15 15 15 15 15 15 15 15 15 15 15
18 18 18 18 17 17 17 18 18 18 18 19 19 19 18 18 18 18 18 16 16 16 15 15 15 14 14 14 14 14 14 14 14
18 18 18 17 17 16 17 17 18 18 18 18 19 19 18 18 18 18 17 16 15 15 14 14 14 14 13 13 13 13 13 13 13
17 17 17 17 17 17 17 18 18 18 18 18 19 19 19 18 18 18 17 16 15 14 14 14 13 13 13 13 13 13 13 13 13
17 17 17 17 17 17 17 17 18 18 18 18 19 19 18 18 18 18 17 15 15 14 14 13 13 13 13 12 12 12 12 12 12
18 17 17 17 17 16 17 17 18 18 18 18 19 19 18 17 18 18 17 16 15 14 13 13 13 13 12 12 12 12 12 12 11
18 18 17 17 16 16 17 17 18 18 18 18 19 19 18 18 18 18 17 16 15 14 13 13 13 12 12 12 12 11 11 11 11
19 18 18 17 17 17 17 18 18 18 18 18 18 19 18 18 18 18 17 16 15 14 14 13 13 12 12 12 11 11 11 11 10
19 19 18 18 18 18 18 18 18 18 18 18 18 19 18 18 18 17 17 16 15 14 14 13 13 12 12 11 11 11 11 10 10
20 19 19 19 18 18 18 18 18 18 18 18 18 18 18 18 18 17 17 16 15 14 14 13 13 12 12 12 11 11 10 10 10
20 20 19 19 19 19 19 19 19 19 18 18 18 18 18 18 17 17 16 16 15 14 13 13 13 13 12 12 11 11 10 10 10
20 20 20 19 19 19 19 19 19 19 18 18 18 18 18 17 17 17 16 15 15 14 14 13 13 12 12 12 12 11 10 10 10
20 20 20 20 19 19 19 19 19 19 18 18 18 18 17 17 17 16 16 15 15 14 14 13 13 13 12 12 12 11 10 10 10
20 20 20 19 19 19 19 18 18 18 18 18 17 17 17 17 17 16 16 16 15 14 14 14 13 12 12 11 11 11 10 9 9
20 20 20 19 19 19 19 18 18 18 18 17 14 12 14 16 16 16 16 15 15 15 14 13 13 12 12 11 10 10 9 9 9
19 19 19 19 19 19 19 19 18 17 17 17 16 10 11 12 15 15 15 15 15 14 14 13 12 12 12 11 10 10 9 9 9
19 19 18 18 19 19 19 18 18 17 16 15 17 17 15 11 11 13 13 14 14 14 13 13 12 12 11 11 10 9 8 8 8
19 19 19 17 17 17 17 17 16 16 15 15 15 14 14 13 11 10 10 12 12 12 12 12 12 10 10 10 9 8 8 6 6

GFSFLT1_925_temp_078.txt.gz
Temp
18 18 18 18 18 18 18 19 19 18 18 18 18 18 18 18 18 18 17 17 17 17 16 16 17 17 17 17 16 16 16 17 16
18 18 18 18 18 18 18 19 19 19 18 18 18 18 18 18 18 18 17 17 16 16 16 16 16 16 17 17 16 16 16 16 16
18 18 18 18 18 17 19 19 19 19 18 18 18 18 18 18 18 18 17 16 16 16 15 15 15 15 15 15 15 15 15 16 16
18 18 18 18 18 18 18 18 18 19 19 18 18 18 18 18 18 18 17 16 16 15 15 15 14 14 14 14 14 14 14 14 14
18 18 18 18 18 18 18 18 18 19 19 19 18 18 18 18 18 18 17 16 15 15 15 14 14 14 13 13 13 13 13 13 14
18 18 18 18 17 17 17 17 18 19 19 19 18 18 18 17 17 18 17 16 15 14 14 14 14 13 13 13 13 13 13 13 13
17 17 17 17 17 17 17 17 17 18 18 18 18 18 18 18 17 17 17 16 15 14 14 13 13 13 13 13 13 13 12 12 12
17 17 17 17 17 17 16 16 17 18 18 18 18 18 18 17 17 17 17 16 15 14 14 13 13 13 12 12 12 12 12 12 12
17 17 17 17 17 17 17 17 17 18 18 18 18 18 18 17 17 17 17 16 15 14 14 13 13 13 12 12 12 12 12 11 11
18 18 18 17 17 17 17 17 17 18 17 18 18 18 18 18 17 17 17 16 16 15 14 13 13 13 12 12 12 11 11 11 11
19 18 18 18 17 18 17 18 18 18 18 18 18 18 18 18 17 17 17 17 16 15 14 13 13 13 12 12 11 11 11 11 11
19 19 19 19 18 18 18 18 18 18 18 18 18 18 18 18 17 17 17 17 16 15 14 14 13 13 13 12 11 11 11 11 10
19 19 19 19 19 18 18 18 18 18 18 18 18 18 18 18 18 17 17 17 16 15 14 14 13 13 13 12 12 11 11 10 10
20 20 20 19 19 18 18 18 18 18 17 18 18 18 18 18 18 17 17 16 16 15 15 14 13 13 13 13 12 12 11 10 10
20 20 20 19 19 19 18 18 18 18 18 18 18 18 18 17 17 17 17 17 16 15 15 14 13 13 13 13 13 12 11 10 10
20 20 20 20 19 19 19 19 18 18 18 17 17 17 17 17 17 17 17 16 16 15 14 14 14 13 13 13 12 12 11 10 10
20 20 20 20 19 19 19 18 18 18 18 17 14 13 15 17 17 16 16 16 16 15 14 14 14 13 13 12 12 12 11 10 10
20 20 19 19 19 19 19 19 18 17 17 17 16 11 11 11 15 16 16 15 15 15 15 14 13 13 13 12 12 11 10 10 10
18 18 19 19 18 18 18 19 18 17 16 15 15 15 14 11 11 14 14 14 14 14 13 13 12 11 11 11 10 10 8 8 9
19 18 18 19 18 17 17 17 17 17 15 15 15 15 13 13 11 13 11 12 11 12 12 11 10 10 9 7 8 8 7 5 5

GFSFLT1_925_temp_081.txt.gz
Temp
18 18 18 18 19 19 19 18 17 17 17 18 18 18 18 18 17 17 17 18 17 16 16 17 17 17 17 17 17 17 16 16 16
18 18 18 18 19 18 19 19 18 18 18 18 18 18 17 17 17 17 17 17 17 16 16 16 16 17 17 17 16 16 16 16 16
18 18 18 18 18 18 18 19 19 18 18 18 18 18 18 18 18 18 17 16 16 15 15 15 15 15 15 15 16 16 16 16 16
18 18 18 17 17 18 18 19 19 18 18 18 17 18 18 18 18 17 17 16 16 15 15 15 14 14 14 14 14 14 14 14 14
17 18 18 17 17 18 18 18 18 18 18 17 17 17 17 17 17 17 17 16 15 15 15 14 14 14 13 13 14 14 14 14 14
17 18 18 17 17 17 17 17 18 18 18 17 17 17 17 17 17 17 17 16 15 15 14 14 14 13 13 13 13 13 13 13 13
18 18 18 17 17 17 17 17 17 18 18 18 17 17 17 17 17 17 17 16 15 14 14 14 13 13 13 13 13 13 13 13 13
17 17 17 17 17 17 17 17 17 18 18 18 17 17 17 17 17 17 16 16 15 15 14 14 13 13 13 12 12 12 12 12 12
17 17 17 17 17 17 17 17 17 17 18 18 18 17 17 17 17 17 16 16 15 15 14 13 13 13 12 12 12 12 12 12 12
18 18 17 17 17 17 17 17 17 17 18 18 18 18 17 17 17 17 17 16 16 15 14 14 13 13 12 12 12 12 11 11 11
18 18 18 17 17 17 17 17 17 17 18 18 18 18 18 18 17 17 17 16 16 16 15 14 13 13 13 12 12 11 11 11 11
18 18 18 18 18 17 17 17 17 17 17 18 18 18 18 18 18 17 17 17 16 16 15 14 14 13 13 13 12 11 11 11 11
19 19 19 19 18 18 18 18 17 17 17 17 17 17 17 18 18 17 17 17 16 16 16 15 14 13 13 13 12 12 11 11 10
19 19 19 19 19 18 18 18 17 17 18 18 18 18 17 17 17 17 17 17 17 16 16 15 14 14 13 13 13 12 11 11 10
19 19 19 19 19 19 18 18 18 17 17 17 17 17 17 17 17 17 17 17 17 16 16 15 14 14 13 13 13 13 12 11 10
20 19 19 19 19 19 19 18 18 17 17 16 17 17 17 17 17 17 17 17 17 16 16 15 15 14 13 13 13 13 12 11 10
20 20 20 19 19 19 19 18 18 17 17 16 14 14 16 17 17 17 17 16 16 16 15 15 14 14 13 13 12 12 12 11 10
19 19 20 19 19 19 19 18 17 16 17 16 16 12 13 11 16 16 16 15 15 14 14 14 13 13 12 11 11 11 11 11 10
19 19 19 19 19 18 18 18 17 17 15 15 15 15 14 13 12 15 15 16 16 16 15 14 13 13 12 11 10 9 9 9 9
18 18 18 18 18 17 17 17 17 16 15 15 15 14 13 12 11 13 13 12 13 13 12 12 12 11 11 10 9 8 8 7 6

GFSFLT1_925_temp_084.txt.gz
Temp
18 18 19 19 18 18 17 17 17 17 17 17 18 18 17 17 17 17 17 17 17 16 16 17 17 17 17 17 17 16 16 16 17
18 18 18 19 18 18 18 17 17 17 17 18 18 17 17 17 17 17 17 17 16 16 16 16 16 17 17 17 16 17 16 16 16
18 18 18 18 18 18 18 18 17 17 17 17 17 17 17 17 17 17 16 16 16 15 15 15 15 15 15 16 16 16 16 16 16
18 18 18 18 18 18 18 18 18 17 17 17 17 17 17 17 17 17 16 16 15 15 15 14 14 14 14 14 14 14 14 14 14
17 17 18 17 17 18 17 17 18 18 17 17 17 17 17 17 17 17 16 16 15 15 14 14 14 14 13 13 13 14 14 14 14
17 17 17 17 17 17 17 17 17 17 17 17 17 17 17 17 17 16 16 16 15 15 14 14 14 13 13 13 13 13 13 13 13
18 18 18 18 17 17 17 18 18 18 17 17 17 17 17 17 17 17 16 15 15 15 15 15 14 13 13 13 13 13 13 13 13
17 17 17 17 17 17 17 17 17 18 18 17 17 17 17 17 17 17 16 16 15 15 15 14 14 13 12 12 12 12 12 12 12
17 17 17 17 17 17 17 17 17 17 18 18 17 17 17 17 17 17 16 16 15 15 15 14 13 13 12 12 12 12 12 12 12
18 17 17 17 17 17 17 17 17 17 17 17 17 17 17 17 17 17 17 16 16 15 15 14 13 13 13 12 12 12 11 11 11
18 18 18 18 17 17 17 17 17 17 17 17 17 17 17 17 17 17 17 17 16 15 15 14 14 13 13 12 12 12 11 11 11
18 18 18 18 18 17 16 16 16 17 17 18 17 17 17 17 17 17 17 17 17 16 15 14 14 14 13 13 12 12 11 11 11
18 18 18 18 18 17 17 17 17 17 17 17 18 17 17 17 17 17 17 17 17 16 16 15 14 14 14 13 13 12 11 11 11
18 18 19 18 18 18 18 17 17 17 17 17 17 18 17 17 17 17 17 17 17 17 16 16 15 14 14 14 14 13 12 11 11
19 19 19 19 18 18 18 17 17 17 17 17 17 17 17 17 17 17 17 17 17 16 16 15 15 15 14 13 13 14 12 11 11
19 19 19 19 18 18 18 17 17 17 17 16 16 17 18 17 17 17 17 17 16 16 16 15 15 14 14 13 13 13 13 12 11
20 19 19 19 18 18 18 17 17 17 16 16 14 14 16 18 18 17 17 17 16 16 16 15 15 14 14 13 13 13 12 11 10
19 19 19 19 18 18 18 18 17 16 16 16 16 13 13 13 17 18 18 17 17 15 14 14 14 14 14 13 12 12 12 11 10
19 19 19 19 18 18 18 18 17 16 15 15 15 15 14 13 13 15 16 16 16 16 15 14 14 13 13 12 12 12 11 10 10
18 18 18 18 18 18 17 17 16 16 15 15 14 14 13 12 11 13 13 13 14 14 14 13 12 11 11 10 11 10 10 9 9

GFSFLT1_925_temp_087.txt.gz
Temp
18 18 18 18 18 17 16 16 17 17 17 17 18 17 17 18 18 17 17 17 17 16 16 17 17 17 17 16 16 16 16 17 16
18 18 18 18 18 17 17 17 17 17 18 17 17 17 17 17 17 17 16 16 16 16 16 16 16 17 17 17 16 16 16 16 16
18 18 18 18 18 17 17 17 17 17 17 17 17 17 17 17 17 17 16 16 16 15 15 15 15 15 15 16 16 16 16 16 15
18 18 18 18 17 17 17 17 17 17 17 17 17 17 17 17 17 16 16 16 15 15 15 14 14 14 14 14 14 14 14 14 14
17 18 18 17 17 17 17 17 17 17 17 17 17 17 17 17 17 17 16 15 15 15 14 14 14 14 13 13 13 14 14 14 14
18 17 18 18 17 17 17 17 18 18 18 17 17 17 17 17 17 17 16 15 15 15 15 15 14 13 13 13 13 13 13 13 13
17 18 18 18 17 17 17 17 17 17 17 17 17 17 17 17 17 17 16 15 15 15 15 15 14 14 13 13 13 13 13 13 13
17 18 17 17 17 17 17 17 17 17 17 17 17 17 17 17 17 17 16 16 15 15 15 15 14 14 13 13 12 12 12 12 12
17 17 17 17 17 17 17 17 17 17 17 17 17 17 17 17 17 17 16 16 15 15 15 15 14 13 13 12 12 12 12 12 12
17 17 17 17 17 17 17 17 17 17 17 17 17 17 17 17 17 17 17 16 16 15 15 14 14 13 13 12 12 12 12 11 11
18 17 17 17 17 17 17 17 17 17 16 16 17 17 17 17 17 17 17 17 16 16 15 15 14 14 13 13 12 12 11 11 11
18 18 18 18 18 17 17 17 16 17 17 17 17 17 17 17 17 17 17 17 17 16 16 15 14 14 14 13 13 12 11 11 11
18 18 18 18 18 17 17 17 16 17 17 17 17 17 17 17 17 17 17 17 17 17 16 16 15 14 14 14 14 12 12 11 11
18 18 18 18 18 17 17 17 17 17 17 17 17 17 17 17 17 17 17 17 17 17 16 16 15 15 14 14 14 13 12 12 12
18 18 18 18 18 18 18 17 17 17 17 17 17 17 17 18 18 18 18 17 17 17 16 16 15 15 14 14 14 14 13 12 11
19 19 19 18 18 18 18 17 17 17 17 15 16 17 18 18 18 18 18 18 17 17 16 16 15 15 15 14 13 13 14 12 11
18 18 18 18 18 18 18 17 16 16 16 16 14 17 17 18 18 18 19 18 17 17 16 15 15 14 14 14 13 13 13 13 11
19 19 19 18 18 18 17 17 17 15 16 16 16 14 15 14 17 17 17 17 17 16 16 16 14 14 14 13 13 13 13 12 11
19 19 18 18 18 18 18 17 17 16 15 15 15 15 15 14 15 16 16 16 16 15 15 15 14 13 13 12 12 12 11 12 11
18 17 18 18 18 18 17 17 17 16 15 15 15 14 13 13 12 12 14 14 14 14 13 13 13 12 13 12 11 11 11 11 10

GFSFLT1_925_temp_090.txt.gz
Temp
17 18 18 18 17 16 16 17 17 17 17 17 18 18 18 19 19 19 19 18 16 16 16 16 16 17 17 17 17 17 17 17 16
18 18 18 18 17 17 17 17 17 17 17 18 18 18 18 19 19 19 18 17 16 16 16 16 16 16 16 16 16 16 16 16 15
18 18 18 18 17 17 17 17 17 17 17 17 17 18 18 19 18 18 18 16 16 15 15 15 15 15 15 16 15 15 16 15 15
18 18 18 17 17 17 17 17 17 17 17 17 17 18 18 19 18 18 18 16 15 15 15 15 14 14 14 14 14 14 14 14 14
17 17 18 17 17 18 18 17 18 18 18 18 18 18 18 18 18 18 17 15 15 15 14 14 14 14 14 14 14 14 14 14 14
18 18 18 18 17 17 17 17 17 17 17 17 17 17 18 19 18 18 17 15 15 15 15 15 14 14 13 13 13 13 14 13 13
19 18 18 18 17 17 17 17 17 17 18 17 17 18 18 18 18 18 17 15 15 16 16 15 15 14 13 13 13 13 13 13 13
18 18 18 18 17 17 17 16 17 17 18 18 18 18 18 18 18 17 17 16 15 15 15 15 15 14 13 13 13 13 12 12 12
19 19 19 18 18 18 18 18 18 17 17 18 18 18 18 18 18 18 17 16 16 15 15 15 15 14 13 13 12 12 12 12 12
19 19 19 19 19 19 18 18 18 18 18 17 18 18 18 18 18 18 17 17 16 16 15 14 14 14 13 13 12 12 12 12 12
19 19 18 18 18 18 18 18 18 18 18 18 18 18 18 17 17 18 18 17 17 16 15 15 14 14 13 13 12 12 12 11 11
18 19 18 18 18 18 17 17 17 18 18 18 18 18 18 18 17 17 17 17 17 17 16 15 15 14 14 14 13 13 12 11 11
18 18 18 18 18 17 18 18 18 18 18 18 18 18 18 18 18 18 17 17 17 17 17 16 15 15 14 14 14 13 12 12 12
18 18 18 18 17 17 17 18 18 18 18 18 18 18 18 18 18 18 18 17 17 17 16 16 16 15 15 14 14 14 12 12 11
18 18 18 18 18 17 17 17 17 17 18 18 18 18 18 18 18 18 18 18 16 16 16 16 16 15 15 14 14 14 13 12 12
18 18 18 18 17 18 17 17 17 17 17 17 18 18 18 18 18 18 18 18 16 16 16 15 15 16 15 14 14 14 14 13 12
18 18 18 18 17 17 17 17 17 17 17 18 18 19 21 19 19 18 17 17 16 16 15 15 14 14 14 14 14 14 14 13 12
18 18 17 17 17 17 17 17 16 17 16 16 17 17 18 18 18 17 17 16 15 15 16 14 14 13 12 13 14 13 13 13 13
19 19 18 17 17 17 16 16 16 16 17 15 15 16 16 16 15 16 15 16 15 15 13 13 13 14 13 13 13 13 13 13 12
18 17 17 17 16 17 16 16 16 16 16 17 15 14 13 13 13 14 16 14 14 14 13 13 13 12 12 10 12 12 11 11 11

GFSFLT1_925_temp_093.txt.gz
Temp
17 17 17 17 17 17 17 17 17 17 17 18 18 19 19 20 20 20 18 17 16 16 16 16 16 16 16 17 16 16 16 16 15
18 18 17 17 17 16 16 17 17 17 18 18 18 18 19 20 20 19 18 16 16 16 16 16 15 16 16 16 17 16 16 16 15
18 18 18 17 16 16 16 17 17 17 18 18 18 18 19 20 19 18 17 16 16 16 15 15 15 15 15 15 15 15 15 15 14
18 18 18 18 17 17 18 18 18 18 18 18 18 18 19 19 19 20 17 16 15 15 15 15 15 15 15 14 14 14 14 14 14
18 18 18 18 18 18 18 18 18 18 18 18 18 18 19 20 19 18 16 16 15 15 15 15 14 14 14 14 14 14 14 14 14
19 18 19 18 18 18 18 18 18 18 18 18 18 19 20 20 19 18 17 16 16 16 16 15 15 14 13 13 13 14 14 13 13
20 18 18 18 18 17 17 18 18 18 19 18 19 19 20 20 19 18 17 16 16 16 16 16 15 14 13 13 13 13 13 13 13
19 18 18 18 18 17 17 17 18 19 20 20 20 20 20 20 19 18 18 17 15 16 16 15 15 15 13 13 13 13 13 12 12
21 20 18 18 18 18 19 20 20 19 19 20 20 20 20 20 19 19 18 17 16 15 15 15 15 15 14 13 13 12 12 12 12
21 21 21 20 20 19 20 20 20 19 19 19 19 19 19 19 19 19 18 18 17 16 15 15 15 14 14 13 13 12 12 12 12
21 21 21 20 20 20 20 20 20 20 20 20 19 19 19 19 19 19 19 18 17 17 16 15 15 14 14 13 13 13 12 12 12
20 21 20 20 20 20 20 19 19 19 20 19 20 20 20 19 19 19 19 18 18 17 17 16 15 15 14 14 13 14 13 13 13
19 20 20 20 20 19 19 19 19 19 19 20 20 19 19 19 19 19 19 18 18 18 17 17 16 15 15 14 14 13 13 12 12
19 19 20 20 19 19 19 19 19 20 19 19 19 19 19 19 19 19 19 19 18 17 18 17 16 16 15 15 15 14 13 12 12
19 20 20 19 19 19 19 19 19 19 19 19 19 19 19 19 19 19 19 19 18 17 17 17 16 16 16 15 14 15 14 13 12
19 19 20 19 19 19 19 19 18 18 18 18 18 19 19 19 19 19 19 19 18 17 17 16 16 16 16 15 15 15 14 14 13
19 19 19 19 19 19 19 19 18 18 18 18 19 19 20 20 19 19 19 18 17 17 16 16 15 15 15 14 14 14 14 13 14
18 18 19 19 19 18 18 18 17 18 18 18 18 17 18 19 19 18 18 17 16 15 15 15 14 14 13 13 13 14 14 14 13
17 16 17 18 18 17 17 17 17 17 17 17 16 17 17 17 17 17 17 16 15 14 14 13 12 13 12 12 12 13 13 13 13
20 19 16 16 17 17 17 17 17 16 17 17 16 16 16 14 15 15 16 15 13 13 13 12 11 12 11 12 12 12 12 12 11

GFSFLT1_925_temp_096.txt.gz
Temp
17 17 17 17 16 17 17 17 17 18 18 19 19 20 20 19 18 18 17 16 16 16 16 16 16 16 16 16 17 17 17 15 15
17 17 17 17 17 17 17 17 17 18 18 18 19 19 20 19 18 17 17 16 16 16 16 15 15 15 15 15 15 15 15 15 15
18 18 17 17 16 17 17 17 18 18 18 18 19 19 19 19 18 18 17 16 16 16 15 15 15 15 15 15 15 15 14 14 14
18 18 17 17 18 18 18 18 18 18 18 19 19 19 19 19 18 18 17 16 16 15 15 15 15 14 14 14 14 14 14 14 14
18 18 18 18 18 18 18 18 18 18 18 19 19 19 19 19 19 18 17 16 16 16 16 15 14 14 14 14 14 14 14 14 14
18 18 18 18 18 18 18 18 18 18 18 19 19 19 20 20 19 18 17 17 16 17 16 16 15 14 14 13 14 14 13 13 13
19 18 18 18 18 18 18 18 18 18 19 19 19 20 20 19 19 18 18 16 16 16 16 16 15 14 13 13 13 13 13 13 13
19 18 18 18 18 18 18 18 19 19 19 19 19 20 20 20 19 19 18 17 16 16 16 16 16 15 14 13 13 13 12 12 12
19 19 18 18 18 18 18 19 19 19 19 19 20 20 20 19 19 19 18 18 17 16 16 16 16 15 14 14 13 13 12 12 12
20 19 19 19 18 19 19 19 20 19 19 19 19 19 19 19 19 19 19 18 18 17 15 16 15 15 15 14 14 13 13 12 12
21 21 20 20 19 19 19 20 20 19 19 19 19 19 19 19 19 19 18 18 18 17 17 15 15 15 14 14 14 14 14 13 12
21 21 21 20 20 20 20 20 20 19 20 19 19 19 19 19 19 18 18 18 18 18 17 17 15 15 14 14 14 14 13 13 13
20 20 20 20 20 20 19 19 19 19 19 19 19 19 19 19 19 19 19 18 18 18 17 17 17 16 15 15 14 13 13 13 13
19 19 20 20 19 19 19 19 19 19 19 19 19 19 19 19 19 19 19 19 18 18 17 17 17 16 16 15 14 14 13 14 14
19 19 19 19 19 19 19 19 19 19 19 19 19 19 19 19 19 19 19 19 19 18 17 17 16 16 16 16 15 15 14 13 13
19 19 19 19 19 19 19 19 19 18 18 18 18 18 19 19 19 19 19 19 19 18 17 16 16 16 16 15 15 14 14 14 13
20 19 19 20 19 19 19 19 18 18 18 18 17 16 18 19 19 19 19 18 18 17 16 16 15 15 15 14 14 14 14 14 14
19 19 19 19 19 19 19 19 18 18 18 18 18 15 15 18 19 19 18 18 17 16 16 15 15 14 14 14 14 14 14 14 14
20 20 20 19 19 19 18 18 18 17 17 17 18 18 17 15 15 17 17 17 16 15 13 13 13 13 13 13 13 13 13 13 12
19 20 20 20 19 18 18 18 18 17 17 17 17 16 16 16 14 14 14 14 14 13 12 12 11 11 11 12 12 12 12 12 12

GFSFLT1_925_temp_099.txt.gz
Temp
17 17 17 17 17 17 17 17 18 18 19 19 19 18 19 19 18 17 17 16 16 16 16 16 16 16 16 16 16 16 15 15 15
16 17 17 17 18 17 17 17 18 19 19 19 19 19 19 19 18 17 16 16 16 16 15 15 15 15 15 15 15 15 15 15 15
16 17 17 17 17 17 17 18 18 18 19 19 19 19 18 18 18 18 17 16 16 15 15 15 15 15 15 15 15 14 14 14 15
17 17 17 17 17 17 17 18 18 19 19 19 19 19 18 19 19 18 17 16 15 15 15 15 14 14 14 14 14 14 14 14 14
18 18 18 18 18 18 18 18 19 19 19 19 19 19 18 18 19 19 17 16 15 15 15 14 14 14 14 14 14 14 14 14 14
18 19 19 18 18 18 18 19 19 19 19 19 19 19 18 18 18 18 18 17 16 16 16 15 15 14 14 14 13 13 13 13 13
18 18 18 18 18 19 19 19 19 19 19 19 19 19 19 19 19 18 18 17 16 16 16 16 16 15 14 13 13 13 13 13 13
18 18 18 18 18 18 19 19 19 19 19 19 19 19 19 19 19 19 18 18 17 16 16 16 16 16 15 14 13 13 13 12 12
19 18 18 18 18 18 18 19 19 19 19 19 19 19 19 19 19 19 18 18 17 16 16 16 16 16 15 15 14 14 12 12 12
19 19 18 18 18 18 19 18 18 19 19 19 19 19 19 19 19 19 18 18 18 17 16 16 15 16 15 15 15 14 13 12 12
19 19 19 19 19 19 19 19 19 19 19 19 19 19 19 19 19 19 18 18 18 17 17 15 15 15 15 15 15 14 14 13 13
20 20 20 19 19 19 19 19 19 19 19 19 19 19 19 19 19 18 18 18 18 18 17 17 16 15 14 14 14 14 14 13 13
21 20 19 19 19 19 19 19 19 19 19 19 19 19 19 19 19 19 18 18 18 18 17 17 17 16 15 15 14 14 14 14 13
20 20 20 20 20 19 19 19 19 19 19 19 19 19 19 19 19 19 19 18 18 18 18 17 17 16 16 15 15 15 14 14 14
20 20 19 19 19 19 19 19 19 19 19 19 19 19 19 18 18 18 19 19 18 18 17 17 16 16 16 16 15 15 14 14 13
19 19 19 19 19 19 19 18 18 18 18 18 18 18 18 19 19 18 18 18 19 18 17 17 16 16 16 15 15 15 14 14 13
20 19 19 19 19 19 19 18 18 18 18 18 17 15 17 19 19 18 18 18 18 17 16 16 16 15 15 15 14 14 14 14 14
19 19 19 19 19 19 19 19 18 18 18 18 18 14 15 16 17 17 17 17 17 16 16 15 15 14 14 14 14 14 14 14 14
18 18 18 18 18 18 18 19 18 18 17 17 17 17 17 15 16 16 15 15 15 15 15 14 14 13 13 13 13 13 13 13 13
19 19 18 18 18 18 18 18 18 18 17 16 16 16 16 16 15 14 13 14 13 13 13 12 13 12 12 12 13 13 13 12 13

GFSFLT1_925_temp_102.txt.gz
Temp
17 17 17 17 17 17 17 18 18 19 19 19 19 18 19 19 18 17 16 16 16 16 16 16 16 16 16 16 16 15 15 15 15
16 17 17 17 17 17 17 18 19 19 18 18 18 18 19 19 18 17 16 16 16 16 15 15 15 15 15 15 15 15 15 15 15
16 17 18 18 17 17 18 18 18 19 18 18 18 18 19 19 18 17 16 16 16 15 15 15 15 15 15 15 15 15 15 15 15
16 17 17 17 17 18 18 18 19 19 19 18 18 18 18 18 18 17 17 16 15 15 15 15 15 14 14 14 14 14 14 14 14
17 17 17 17 18 18 18 18 19 19 19 18 17 18 18 18 18 18 17 16 15 15 15 14 14 14 14 14 14 14 14 14 14
18 18 18 18 18 18 19 19 19 19 19 19 18 18 18 18 18 18 17 16 16 17 16 15 14 14 14 14 13 13 13 13 14
19 18 18 18 18 18 19 19 19 19 19 19 19 18 18 18 18 18 18 17 17 17 17 16 16 15 14 13 13 13 13 13 13
18 18 18 18 19 19 19 19 19 19 19 19 19 19 18 18 18 18 18 17 17 16 16 16 16 16 15 14 13 13 13 13 13
18 18 18 18 18 19 19 19 19 19 19 19 19 19 19 19 18 18 18 18 17 17 16 16 16 15 15 14 13 13 12 12 12
18 18 18 18 18 18 18 18 18 18 18 19 19 19 19 19 19 18 18 18 17 17 16 16 16 15 15 15 14 13 12 12 12
18 18 18 18 18 18 18 18 18 18 18 18 19 19 19 19 19 18 18 18 17 17 15 15 15 15 15 15 14 14 13 13 12
19 19 19 19 19 19 18 18 18 18 18 19 19 19 19 19 19 18 18 18 18 17 17 16 15 15 14 14 14 14 14 13 13
20 19 19 19 19 18 18 18 18 19 19 19 19 19 19 19 19 18 18 18 18 18 17 17 16 15 15 15 14 14 15 14 14
20 20 20 19 19 19 19 18 19 19 19 19 19 19 19 19 19 18 18 18 18 18 18 17 17 16 16 16 15 14 14 14 14
20 19 19 19 19 19 19 19 19 18 18 18 18 18 18 18 18 18 18 18 18 18 18 17 17 16 16 16 15 15 14 14 14
20 20 20 19 19 19 19 19 18 18 18 18 18 18 18 18 18 18 18 18 18 18 17 17 16 16 16 16 15 15 15 14 14
20 20 19 19 19 19 19 19 18 18 18 17 16 14 17 18 18 18 18 18 17 17 17 16 16 16 16 15 15 15 14 14 14
19 19 19 19 19 19 19 18 17 18 17 17 17 14 14 15 16 16 16 16 15 15 15 15 15 15 15 14 14 14 14 13 13
19 19 18 18 18 17 17 17 17 16 16 15 16 16 16 15 15 15 14 14 14 14 14 14 14 14 14 14 13 13 13 13 13
17 17 17 17 17 17 17 17 17 17 17 16 16 16 16 15 14 14 12 13 13 13 13 13 13 13 12 12 13 13 13 13 13

GFSFLT1_925_temp_105.txt.gz
Temp
17 17 16 17 17 18 17 18 18 18 18 18 18 19 19 19 18 17 16 16 16 16 16 16 16 16 16 15 15 15 15 15 15
17 16 17 18 17 17 17 18 18 18 18 18 19 19 19 18 17 17 16 16 16 16 15 15 15 15 15 15 15 15 15 15 15
16 17 17 17 17 17 18 18 18 18 18 18 18 19 19 18 18 17 16 16 16 15 15 15 15 15 15 15 15 15 15 15 15
18 18 18 17 17 18 18 18 18 18 18 18 18 18 18 18 18 17 17 16 15 15 15 15 15 15 14 14 14 15 14 15 15
17 17 17 17 18 18 18 18 18 18 18 18 18 18 18 18 18 18 17 16 16 15 15 15 14 14 14 14 14 14 14 14 14
17 17 17 18 18 18 18 19 18 18 18 18 18 18 18 18 18 18 17 16 16 16 15 15 14 14 14 14 14 13 14 14 14
18 18 18 18 18 18 18 19 19 18 18 18 18 18 18 18 18 18 17 16 16 17 16 16 15 14 13 13 13 13 13 13 13
18 18 18 18 18 18 18 18 18 19 18 18 18 18 18 18 18 17 17 17 16 16 16 16 16 15 14 13 13 13 13 13 13
18 18 18 18 18 18 18 18 18 19 18 18 18 18 18 18 18 18 17 17 16 16 16 16 16 15 15 14 13 13 12 12 12
18 18 18 18 18 18 19 18 18 18 18 19 19 19 18 18 18 18 18 17 16 16 16 16 15 15 15 14 14 13 12 12 12
18 18 18 18 18 18 18 18 18 18 18 18 18 18 18 18 18 18 18 17 17 16 16 15 15 15 14 14 14 14 13 13 13
18 18 18 18 18 18 18 18 18 18 18 18 18 18 18 18 18 18 18 18 17 17 17 16 15 15 14 14 14 14 14 14 13
19 18 19 19 18 18 18 18 18 18 18 18 18 18 18 18 18 18 18 18 18 18 17 17 16 16 15 15 15 14 15 14 14
19 19 19 19 18 18 18 18 18 18 18 18 18 18 18 18 18 18 18 18 18 18 17 17 17 16 16 16 15 15 14 14 14
19 19 19 19 18 18 18 18 18 18 18 18 18 18 18 18 18 18 18 18 18 18 18 17 17 16 16 16 16 16 15 14 14
20 20 19 19 18 19 18 18 18 18 18 18 18 18 18 18 18 18 17 17 17 18 17 17 17 16 16 16 16 15 15 15 14
20 20 19 19 19 18 18 18 18 18 18 17 16 14 17 17 17 17 17 17 17 17 17 16 16 16 16 16 15 15 14 14 14
20 20 19 19 18 18 18 18 18 18 17 16 17 14 14 14 15 15 15 16 16 15 15 15 15 15 15 15 14 14 14 14 14
19 19 19 18 18 18 18 18 16 16 16 15 15 15 15 14 14 14 14 13 14 14 15 14 15 15 14 14 13 13 13 13 13
18 18 17 17 16 17 18 16 15 16 15 15 15 14 14 14 14 14 13 13 13 14 13 13 14 14 14 14 13 13 13 13 12

GFSFLT1_925_temp_108.txt.gz
Temp
17 17 17 17 18 18 18 18 18 18 18 18 18 18 19 19 18 17 16 16 16 16 16 16 16 15 15 15 15 15 15 15 15
17 16 17 18 18 17 18 18 18 18 18 18 19 19 19 18 18 17 16 16 16 16 15 15 15 15 15 15 15 15 15 15 15
16 16 17 18 18 17 18 18 18 18 18 18 18 18 18 18 17 17 16 16 16 15 15 15 15 15 15 15 15 15 15 15 15
16 17 17 18 17 17 18 18 18 18 18 18 18 18 18 18 17 17 16 15 15 15 15 15 15 15 15 14 15 15 15 15 15
18 17 17 17 17 17 18 18 18 18 18 18 18 18 18 18 17 17 16 15 15 15 15 15 14 14 14 14 14 14 14 14 14
17 17 17 17 17 18 17 17 17 18 18 18 17 17 17 17 17 17 16 15 15 15 15 14 14 14 14 14 14 14 14 14 14
17 17 17 18 18 18 18 18 17 18 18 18 18 17 17 17 17 17 16 16 16 16 16 15 15 14 13 13 13 13 13 13 13
17 17 17 17 18 18 18 18 18 17 17 18 18 18 18 17 17 17 16 16 16 16 16 16 15 15 14 13 13 13 13 13 13
17 18 18 18 18 18 18 18 18 18 18 18 18 18 18 18 17 17 17 16 16 16 16 16 15 15 15 14 14 13 13 12 12
18 18 18 18 18 18 18 18 18 18 18 18 18 18 18 18 18 17 17 17 16 16 16 15 15 15 15 14 14 14 13 13 13
18 18 18 18 18 18 18 18 18 18 18 18 18 18 18 18 18 18 17 17 17 16 15 15 15 14 14 14 14 14 14 14 13
18 18 18 18 18 17 17 17 17 17 18 18 18 18 18 18 18 18 18 17 17 17 16 16 15 15 15 15 14 14 14 14 14
18 18 18 18 17 17 17 17 17 17 18 18 18 18 18 18 18 18 18 18 17 17 17 17 16 16 15 15 15 14 14 15 15
18 18 19 18 18 17 17 17 17 18 18 18 18 18 18 18 18 18 18 18 18 17 17 17 17 16 16 16 16 15 15 14 14
18 18 18 18 18 18 18 18 17 17 18 18 18 18 18 18 18 18 18 17 17 17 18 18 17 17 16 16 16 15 15 15 14
19 19 19 18 18 19 18 18 17 17 17 17 17 18 18 17 17 17 17 17 17 17 17 17 16 16 16 16 16 16 15 15 14
19 19 19 19 19 18 18 18 17 17 17 16 16 15 16 16 16 17 17 17 17 17 16 16 16 16 16 16 16 15 15 14 14
20 19 19 19 19 18 18 17 17 17 16 16 15 14 15 14 15 15 15 15 16 16 15 15 15 15 16 16 15 15 14 14 14
20 19 18 18 17 16 16 16 16 16 15 15 15 15 14 14 14 14 14 15 15 15 15 14 14 14 15 14 15 14 14 14 13
18 17 17 16 16 16 17 17 17 17 16 15 15 14 14 14 14 14 13 13 14 13 14 13 13 13 14 13 13 14 14 13 13

GFSFLT1_925_temp_111.txt.gz
Temp
18 18 18 18 18 18 17 18 18 18 18 18 18 18 18 18 17 16 16 17 16 16 16 16 16 16 16 16 16 16 16 16 16
17 18 18 18 18 18 17 18 18 19 18 18 18 18 18 17 16 16 16 16 16 16 16 16 16 15 16 15 15 15 15 15 15
16 18 18 18 18 17 17 18 18 18 18 18 18 18 18 17 16 16 16 16 16 16 15 15 15 15 15 15 15 15 15 15 15
17 18 18 18 17 18 18 18 18 18 18 18 18 18 18 17 16 16 16 15 15 15 15 15 15 15 15 15 15 15 15 15 15
17 18 18 18 18 18 18 18 18 18 18 18 18 18 17 17 17 16 16 15 15 15 15 15 14 14 14 14 14 14 14 14 15
17 17 18 18 17 18 18 18 18 18 17 17 18 18 18 17 17 16 16 15 15 15 15 14 14 14 14 14 14 14 14 14 14
17 17 17 17 17 17 17 18 18 17 17 17 17 17 17 17 17 16 16 15 16 16 16 15 15 14 14 14 14 13 13 13 13
16 16 17 17 17 17 17 17 17 17 18 18 18 17 17 17 17 16 16 15 16 16 16 16 16 15 14 13 13 13 13 13 13
16 17 17 17 17 17 18 18 18 18 18 18 18 18 18 17 17 17 16 16 15 16 16 16 15 15 15 15 14 14 14 13 13
17 17 17 18 18 18 18 18 18 17 17 18 18 18 18 18 17 17 17 16 16 16 16 15 15 15 15 15 15 15 15 14 13
18 18 18 18 18 18 18 18 18 18 17 18 18 18 18 18 18 17 17 17 16 16 15 15 15 15 15 15 15 15 15 15 14
18 18 18 18 18 18 18 18 18 17 17 17 17 17 17 18 18 18 17 17 17 17 16 16 15 15 15 14 15 15 15 15 15
18 18 18 18 18 17 17 17 17 17 17 18 18 18 18 18 18 18 18 17 17 17 17 17 16 16 15 15 14 14 14 15 14
18 18 18 17 17 17 17 17 17 17 17 18 18 18 18 18 18 18 18 18 17 17 17 17 17 16 16 16 15 15 15 15 14
17 18 17 17 17 17 17 17 17 17 17 17 17 17 17 17 17 17 17 17 17 17 17 17 17 16 16 16 16 16 15 15 15
17 18 17 17 17 17 17 17 17 17 17 17 17 17 17 17 16 17 17 17 17 17 17 17 16 16 16 16 16 16 16 15 15
18 18 18 18 17 17 17 17 17 17 17 16 16 17 16 16 16 16 16 16 16 16 17 16 16 15 15 15 16 15 15 15 15
18 18 18 18 17 17 17 17 16 17 17 16 16 15 15 14 15 15 15 15 15 15 15 15 14 14 14 14 14 15 14 14 14
18 17 17 17 16 16 16 17 16 17 16 15 16 16 15 15 15 13 14 14 14 14 14 14 14 14 14 13 14 14 13 14 14
17 17 16 16 17 17 15 16 15 16 16 15 15 14 14 14 14 14 13 13 14 14 15 14 13 15 14 13 13 13 13 13 13

GFSFLT1_925_temp_114.txt.gz
Temp
19 19 19 19 18 18 17 17 17 18 18 18 18 18 18 18 19 19 18 18 16 16 16 16 16 16 16 16 16 16 16 16 16
19 19 19 18 18 18 17 17 18 18 19 18 18 18 18 19 19 19 18 17 16 16 16 16 16 16 16 16 16 16 16 16 16
18 18 18 18 18 17 17 17 18 18 18 18 18 18 17 19 18 18 17 16 16 16 16 16 16 15 15 15 15 15 15 16 15
18 18 18 18 18 17 17 18 18 18 18 18 18 18 17 18 18 19 17 16 16 16 15 15 15 15 15 15 15 15 15 15 15
18 18 18 18 17 17 17 18 18 18 18 18 18 18 18 18 18 18 16 15 15 15 15 15 15 15 14 15 15 15 15 15 15
17 18 18 18 18 18 18 18 18 18 18 18 18 18 19 19 18 18 16 15 15 15 15 14 14 14 14 14 14 14 14 14 14
19 18 18 18 17 18 18 18 18 18 18 17 17 19 19 19 18 17 16 15 15 15 15 15 14 14 14 14 14 14 14 14 14
18 18 17 17 17 17 17 17 18 18 19 18 19 19 19 19 18 17 16 15 15 16 16 16 15 15 15 14 14 13 13 13 13
18 17 17 17 18 18 18 19 18 18 19 19 19 19 19 19 18 17 17 16 15 16 16 16 15 15 15 15 15 14 13 13 13
18 18 18 18 18 18 18 19 18 18 19 18 19 18 19 18 18 18 17 16 16 16 16 16 15 15 15 15 15 15 14 14 14
19 18 18 18 18 18 18 18 19 19 19 19 18 19 18 18 18 18 17 17 16 16 15 15 15 15 15 15 15 15 15 15 15
18 18 18 18 18 18 18 18 18 19 18 19 18 18 19 18 18 18 18 17 17 17 16 16 15 15 15 15 15 15 15 15 15
17 18 18 18 18 18 18 18 18 19 18 18 18 18 18 18 18 18 18 17 18 17 17 17 16 15 15 15 15 14 15 15 14
17 18 18 17 17 17 17 17 18 18 18 18 18 18 18 18 18 18 18 18 17 17 17 17 17 16 15 15 15 15 15 15 15
17 18 17 17 17 17 17 17 17 18 18 17 18 18 18 17 17 18 17 17 17 17 17 17 16 16 16 16 16 15 16 15 15
17 17 17 17 17 17 17 17 17 17 17 18 19 18 17 17 16 16 16 17 16 17 17 17 16 15 16 15 15 15 15 15 15
17 17 17 17 17 17 17 17 16 18 18 19 18 20 19 16 16 16 15 14 15 15 16 16 15 15 15 15 15 15 14 14 14
16 16 16 16 16 16 16 17 17 18 16 16 18 19 20 18 15 15 15 15 15 15 15 15 15 14 14 14 14 14 14 14 14
17 17 17 16 16 16 16 16 17 17 15 15 16 16 16 18 18 15 14 15 14 14 14 15 15 14 14 14 13 13 13 13 14
17 17 15 16 17 18 18 17 17 17 15 16 15 15 15 14 15 14 14 14 15 15 14 14 14 14 13 13 13 13 13 13 13

GFSFLT1_925_temp_117.txt.gz
Temp
19 19 19 19 18 18 17 17 17 18 18 18 18 19 20 20 20 19 18 17 17 16 16 16 16 16 16 16 16 16 16 16 16
19 19 19 19 18 18 17 17 18 18 19 19 19 19 20 20 20 19 18 17 17 16 16 16 16 16 16 16 16 16 16 16 16
19 19 19 18 18 18 18 17 19 19 19 19 18 19 20 20 19 18 17 16 16 16 16 16 16 16 16 16 16 16 15 16 16
19 19 18 18 17 18 18 18 19 19 18 18 18 19 19 20 19 18 17 16 16 16 15 15 15 15 15 15 15 15 15 15 15
19 18 18 18 17 18 18 19 18 18 18 18 18 19 19 19 19 17 16 16 16 15 15 15 15 15 15 15 15 15 15 15 15
18 18 18 18 18 18 18 18 18 18 18 18 19 20 20 20 19 17 16 16 15 15 15 15 14 14 14 14 14 14 14 14 14
18 18 18 17 17 17 17 18 18 18 18 18 19 20 20 20 19 16 16 15 15 15 15 15 15 14 14 14 14 14 14 14 14
18 19 17 17 17 17 17 18 18 20 20 19 21 21 20 20 19 17 16 15 15 15 16 16 16 15 14 14 14 14 13 13 13
18 18 18 18 18 18 18 19 20 20 20 20 21 21 20 20 19 18 17 16 15 16 16 16 15 15 15 15 15 15 14 14 14
18 18 18 19 20 20 20 20 20 20 20 20 20 20 20 20 19 18 18 17 16 16 16 16 16 16 15 15 15 15 15 15 14
18 18 18 20 20 20 20 20 20 20 20 20 20 20 20 20 19 19 18 18 17 16 16 15 15 16 16 15 15 15 15 15 15
20 20 20 20 20 20 20 20 20 20 20 20 20 20 20 19 19 19 19 18 17 17 16 16 15 15 15 15 15 15 15 15 15
20 20 20 19 19 19 19 19 19 20 19 20 20 19 19 19 19 19 19 19 18 18 17 17 16 16 15 15 15 15 15 15 15
19 19 19 19 19 19 19 19 19 19 19 19 19 19 19 19 19 19 19 18 18 18 18 17 17 16 16 15 15 15 15 15 15
19 19 19 19 18 18 18 19 19 19 19 19 19 19 19 19 18 19 19 18 18 17 18 17 17 17 16 16 16 16 15 15 15
19 19 19 18 18 19 18 18 18 18 18 19 19 19 19 19 18 18 18 18 17 17 17 17 17 16 16 16 15 15 15 15 15
18 19 19 18 19 18 18 18 18 18 18 19 20 20 19 18 17 16 16 15 16 16 16 16 16 15 15 15 14 14 14 14 14
18 18 18 18 18 18 18 17 18 18 19 17 18 19 19 19 17 16 15 16 16 16 15 15 15 15 15 15 14 14 13 13 13
17 18 17 17 17 17 17 17 18 17 16 16 17 16 17 17 18 16 15 14 15 15 15 15 15 15 15 14 14 14 13 13 13
16 16 16 16 16 16 16 16 16 16 16 16 16 15 15 16 16 17 15 15 15 15 15 14 15 15 14 14 15 14 14 13 13